Date StartTime U_cm/s V_cm/s W_cm/s Ustd_cm/s Vstd_cm/s Wstd_cm/s Uvar_(cm/s)^2 Vvar_(cm/s)^2 Wvar_(cm/s)^2 KE_(m/s)^2 TurbulentKE_(m/s)^2 HorizWindSpeed_cm/s FrictionSpeec_cm/s DragCoef SpeedOfSound_m/s SonicTemperature_C Pressure_mb 
01/22/2014  00:00:00     -119.221      -32.645      -19.272       14.601       20.377       11.908      213.203      415.226      141.809        0.821        0.039      123.610        8.447        0.005      331.426       -0.569      868.584
01/22/2014  00:01:00     -116.659      -53.329      -14.048       25.227       18.931       17.993      636.403      358.373      323.747        0.898        0.066      128.270       13.837        0.012      331.390       -0.626      868.575
01/22/2014  00:02:00     -126.246      -51.592      -17.184       19.046       22.886       11.159      362.733      523.748      124.532        0.995        0.051      136.381        6.134        0.002      331.375       -0.651      868.561
01/22/2014  00:03:00     -145.402      -51.119      -21.781       20.124       15.006        9.557      404.966      225.182       91.342        1.248        0.036      154.126        2.731        0.000      331.458       -0.515      868.547
01/22/2014  00:04:00     -136.969      -48.442      -14.092       22.268       16.532       11.278      495.886      273.310      127.201        1.110        0.045      145.282       11.095        0.006      331.475       -0.488      868.541
01/22/2014  00:05:00     -123.061      -29.333      -12.315       16.241       12.432        9.950      263.774      154.543       99.012        0.834        0.026      126.508        7.880        0.004      331.513       -0.425      868.531
01/22/2014  00:06:00     -129.892      -28.677      -15.059       18.314       14.334       14.737      335.419      205.450      217.186        0.934        0.038      133.020       11.140        0.007      331.442       -0.541      868.520
01/22/2014  00:07:00     -137.944      -28.016      -16.798       22.263       20.532       12.622      495.651      421.545      159.314        1.059        0.054      140.760        8.658        0.004      331.459       -0.513      868.522
01/22/2014  00:08:00     -140.674      -36.934      -14.074       16.976       15.002       11.965      288.184      225.045      143.165        1.100        0.033      145.442        7.650        0.003      331.446       -0.534      868.524
01/22/2014  00:09:00     -101.066      -53.694       -7.498       23.862       15.589       14.271      569.410      243.002      203.656        0.708        0.051      114.443       10.599        0.009      331.393       -0.622      868.547
01/22/2014  00:10:00      -76.570      -59.078       -9.178       18.656       15.028       13.668      348.037      225.831      186.821        0.510        0.038       96.712        6.865        0.005      331.378       -0.645      868.565
01/22/2014  00:11:00      -92.097      -34.604       -9.481       26.037       29.372       18.933      677.935      862.728      358.472        0.583        0.095       98.384       15.127        0.024      331.339       -0.710      868.560
01/22/2014  00:12:00      -64.639       -2.354       -9.974       33.551       34.120       17.979     1125.688     1164.173      323.247        0.345        0.131       64.682       15.058        0.054      331.360       -0.675      868.535
01/22/2014  00:13:00      -17.143      -19.718        2.938       27.770       23.744       17.506      771.199      563.763      306.454        0.117        0.082       26.128       13.831        0.280      331.349       -0.691      868.515
01/22/2014  00:14:00      -88.684      -37.207        4.030       39.849       29.213       19.929     1587.978      853.398      397.160        0.605        0.142       96.173       20.333        0.045      331.288       -0.792      868.505
01/22/2014  00:15:00     -107.940      -49.081       -5.611       35.379       26.294       18.352     1251.667      691.387      336.807        0.819        0.114      118.575       17.935        0.023      331.301       -0.772      868.490
01/22/2014  00:16:00     -118.144      -60.849      -18.339       29.241       25.626       18.915      855.054      656.675      357.784        0.993        0.093      132.893       11.796        0.008      331.261       -0.837      868.479
01/22/2014  00:17:00      -99.074      -69.946       -1.558       44.740       29.369       20.069     2001.711      862.536      402.770        0.899        0.163      121.277       20.598        0.029      331.323       -0.736      868.474
01/22/2014  00:18:00      -46.930      -35.070       -5.954       46.746       29.068       28.069     2185.208      844.957      787.893        0.364        0.191       58.586       33.000        0.317      331.314       -0.750      868.462
01/22/2014  00:19:00      -37.165      -26.392        6.695       43.463       18.335       21.184     1889.050      336.162      448.765        0.240        0.134       45.582       25.961        0.324      331.308       -0.761      868.460
01/22/2014  00:20:00      -82.954      -48.217      -12.374       25.032       21.796       16.737      626.614      475.083      280.122        0.537        0.069       95.950       17.045        0.032      331.317       -0.744      868.451
01/22/2014  00:21:00      -92.532      -34.884       -5.466       33.507       21.476       13.477     1122.750      461.238      181.619        0.579        0.088       98.890       15.462        0.024      331.299       -0.774      868.446
01/22/2014  00:22:00     -138.322      -29.882      -12.684       36.191       29.405       20.214     1309.790      864.661      408.611        1.138        0.129      141.513       19.515        0.019      331.281       -0.805      868.430
01/22/2014  00:23:00     -106.648      -29.345       -9.027       31.079       32.692       22.110      965.903     1068.762      488.841        0.742        0.126      110.612       15.760        0.020      331.266       -0.830      868.427
01/22/2014  00:24:00     -120.487      -34.185        1.073       51.606       43.666       28.412     2663.143     1906.738      807.230        1.053        0.269      125.243       28.389        0.051      331.167       -0.994      868.431
01/22/2014  00:25:00     -118.016      -17.894       -4.960       42.840       40.491       24.520     1835.245     1639.538      601.218        0.917        0.204      119.365       12.263        0.011      331.247       -0.862      868.448
01/22/2014  00:26:00      -94.181      -19.623       -3.406       37.506       41.727       24.285     1406.721     1741.154      589.742        0.650        0.187       96.204       16.561        0.030      331.221       -0.903      868.475
01/22/2014  00:27:00     -127.757      -35.411       -0.950       33.283       31.117       24.681     1107.764      968.249      609.133        1.013        0.134      132.573       18.648        0.020      331.180       -0.972      868.495
01/22/2014  00:28:00      -35.273      -26.787        7.568       49.442       36.131       20.576     2444.554     1305.484      423.363        0.310        0.209       44.292       24.752        0.312      331.213       -0.916      868.511
01/22/2014  00:29:00      -95.687       -8.629      -13.350       38.409       21.069       19.117     1475.287      443.897      365.448        0.585        0.114       96.076       14.606        0.023      331.202       -0.935      868.524
01/22/2014  00:30:00      -95.961      -12.705      -16.098       17.340       25.081       17.584      300.664      629.064      309.213        0.543        0.062       96.798        6.239        0.004      331.202       -0.934      868.535
01/22/2014  00:31:00      -87.420      -12.844      -21.975       27.114       23.606       27.533      735.185      557.254      758.060        0.517        0.103       88.358       12.014        0.018      331.182       -0.969      868.547
01/22/2014  00:32:00      -49.455      -13.884      -14.435       28.733       19.006       14.352      825.577      361.216      205.990        0.212        0.070       51.367       14.853        0.084      331.135       -1.044      868.549
01/22/2014  00:33:00      -56.541      -27.024      -18.181       24.545       24.531       12.468      602.439      601.755      155.462        0.281        0.068       62.667       16.009        0.065      331.200       -0.938      868.546
01/22/2014  00:34:00      -77.438      -27.785      -18.737       20.556       21.795       13.297      422.552      475.008      176.802        0.410        0.054       82.272        4.585        0.003      331.278       -0.810      868.542
01/22/2014  00:35:00      -74.439      -38.114      -16.579       18.876       22.572       17.247      356.285      509.473      297.452        0.422        0.058       83.629        7.856        0.009      331.240       -0.872      868.549
01/22/2014  00:36:00      -75.766      -24.478      -13.501       24.052       19.082       16.118      578.522      364.126      259.789        0.386        0.060       79.622       14.056        0.031      331.281       -0.805      868.574
01/22/2014  00:37:00      -70.402      -30.298      -19.014       24.520       19.260       12.575      601.235      370.950      158.138        0.368        0.057       76.644       10.602        0.019      331.255       -0.847      868.577
01/22/2014  00:38:00      -77.027      -32.607      -21.965       21.772       19.529       15.199      474.014      381.380      231.015        0.428        0.054       83.644        4.967        0.004      331.322       -0.738      868.568
01/22/2014  00:39:00      -47.870      -41.193      -10.922       26.410       16.685       18.617      697.480      278.387      346.579        0.271        0.066       63.154       10.525        0.028      331.392       -0.622      868.558
01/22/2014  00:40:00      -60.803      -18.246      -14.733       16.001       18.412       10.952      256.027      338.992      119.944        0.248        0.036       63.482        9.164        0.021      331.809        0.064      868.543
01/22/2014  00:41:00      -55.842      -31.884      -18.721       10.453        8.021       10.668      109.272       64.339      113.811        0.239        0.014       64.303        5.970        0.009      331.559       -0.347      868.530
01/22/2014  00:42:00      -84.077      -30.405      -16.468       17.699       12.167       11.453      313.241      148.036      131.167        0.443        0.030       89.406        8.019        0.008      331.255       -0.848      868.505
01/22/2014  00:43:00      -77.956      -32.303      -13.197       17.671       15.328       12.619      312.255      234.943      159.245        0.400        0.035       84.384       12.607        0.022      331.315       -0.749      868.487
01/22/2014  00:44:00      -99.166      -10.451      -17.966       19.598       18.895       14.667      384.101      357.037      215.108        0.561        0.048       99.715        8.149        0.007      331.261       -0.838      868.476
01/22/2014  00:45:00      -90.695      -36.471      -17.428       19.681       23.183       14.879      387.344      537.438      221.376        0.550        0.057       97.753       11.513        0.014      331.163       -0.999      868.473
01/22/2014  00:46:00      -90.089      -45.512      -12.415       27.466       27.722       19.011      754.389      768.532      361.435        0.611        0.094      100.932       11.592        0.013      331.231       -0.887      868.476
01/22/2014  00:47:00     -129.176      -18.064       -5.076       40.087       41.248       23.776     1606.966     1701.406      565.311        1.046        0.194      130.433       19.506        0.022      331.140       -1.038      868.475
01/22/2014  00:48:00     -110.880      -30.371       -4.724       35.359       33.932       21.626     1250.235     1151.375      467.673        0.805        0.143      114.965       21.858        0.036      331.169       -0.989      868.468
01/22/2014  00:49:00     -133.422      -56.611       -8.216       38.582       24.487       16.586     1488.596      599.637      275.107        1.172        0.118      144.935       16.652        0.013      331.215       -0.913      868.465
01/22/2014  00:50:00     -116.471      -39.870       -9.477       33.455       24.365       21.103     1119.223      593.667      445.320        0.870        0.108      123.106       19.734        0.026      331.194       -0.948      868.460
01/22/2014  00:51:00     -101.106      -14.400       -1.404       35.446       22.401       19.056     1256.433      501.800      363.140        0.628        0.106      102.127       16.584        0.026      331.224       -0.899      868.454
01/22/2014  00:52:00      -97.400        0.759       -7.798       40.048       32.769       22.060     1603.804     1073.786      486.626        0.636        0.158       97.403       22.441        0.053      331.270       -0.823      868.448
01/22/2014  00:53:00     -148.368      -25.571       -6.715       27.775       25.676       17.525      771.472      659.271      307.114        1.222        0.087      150.556       14.702        0.010      331.426       -0.566      868.439
01/22/2014  00:54:00     -101.341      -11.924        0.267       40.755       32.062       20.183     1660.951     1027.997      407.349        0.675        0.155      102.040       20.860        0.042      331.414       -0.586      868.440
01/22/2014  00:55:00     -109.165      -20.339        1.731       36.819       24.846       17.822     1355.640      617.342      317.615        0.731        0.115      111.043       17.569        0.025      331.417       -0.581      868.439
01/22/2014  00:56:00     -102.072      -22.722       -1.540       37.724       19.418       15.990     1423.077      377.046      255.690        0.650        0.103      104.571       16.655        0.025      331.369       -0.660      868.427
01/22/2014  00:57:00      -64.030      -28.453        0.108       21.287       17.480       12.873      453.152      305.567      165.714        0.292        0.046       70.067        9.540        0.019      331.407       -0.597      868.414
01/22/2014  00:58:00      -16.211      -19.879        6.224       29.548       14.989       14.748      873.082      224.684      217.507        0.101        0.066       25.651       16.145        0.396      331.465       -0.504      868.395
01/22/2014  00:59:00      -49.658      -35.119       -3.201       17.196       11.087        9.983      295.714      122.932       99.667        0.211        0.026       60.822       11.099        0.033      331.457       -0.517      868.385
01/22/2014  01:00:00      -67.086      -32.312       -8.375       10.245        9.606        8.465      104.963       92.268       71.655        0.294        0.013       74.462        5.720        0.006      331.517       -0.418      868.384
01/22/2014  01:01:00      -59.469      -25.556       -5.006       19.930       12.377       10.146      397.197      153.187      102.933        0.243        0.033       64.728        7.920        0.015      331.539       -0.381      868.375
01/22/2014  01:02:00      -28.847      -22.664       -2.685       26.669       13.480       10.130      711.239      181.705      102.622        0.117        0.050       36.686       11.925        0.106      331.590       -0.297      868.361
01/22/2014  01:03:00      -11.771      -20.203        3.505       16.235       13.727        8.329      263.562      188.423       69.376        0.054        0.026       23.382        7.510        0.103      331.578       -0.316      868.356
01/22/2014  01:04:00       -8.826      -21.197        5.497       15.061        8.543        8.560      226.828       72.985       73.267        0.047        0.019       22.960        4.883        0.045      331.589       -0.297      868.343
01/22/2014  01:05:00      -54.688      -34.105       -3.464       17.570        9.923        9.637      308.689       98.470       92.879        0.233        0.025       64.451        6.862        0.011      331.548       -0.365      868.330
01/22/2014  01:06:00      -86.628      -33.540       -1.207       15.591       14.548        9.819      243.071      211.634       96.411        0.459        0.028       92.894        8.317        0.008      331.365       -0.667      868.318
01/22/2014  01:07:00      -72.235      -49.089       -1.977       21.957       17.935       12.479      482.130      321.673      155.726        0.430        0.048       87.336        9.223        0.011      331.306       -0.764      868.319
01/22/2014  01:08:00      -71.269      -61.469       -5.583       19.664       23.680       12.881      386.667      560.765      165.911        0.500        0.056       94.115        8.055        0.007      331.436       -0.551      868.318
01/22/2014  01:09:00      -80.722      -54.022        3.279       27.947       23.624       19.075      781.032      558.088      363.842        0.557        0.085       97.131       16.684        0.030      331.321       -0.739      868.314
01/22/2014  01:10:00     -103.632      -59.176        0.338       37.741       26.348       17.722     1424.411      694.211      314.056        0.834        0.122      119.338       18.323        0.024      331.348       -0.695      868.304
01/22/2014  01:11:00      -88.480      -50.079        0.671       33.411       21.797       12.958     1116.313      475.124      167.921        0.605        0.088      101.670       13.264        0.017      331.329       -0.727      868.298
01/22/2014  01:12:00      -89.672      -32.604       -1.221       15.896       16.343       11.588      252.674      267.096      134.272        0.488        0.033       95.416        8.673        0.008      331.355       -0.683      868.291
01/22/2014  01:13:00      -72.212      -14.253       -0.385       18.928       17.979        9.413      358.265      323.231       88.603        0.309        0.039       73.605        9.990        0.018      331.331       -0.723      868.286
01/22/2014  01:14:00      -94.543      -11.679       -9.425       23.730       10.461        9.935      563.100      109.427       98.703        0.497        0.039       95.262       11.827        0.015      331.371       -0.657      868.278
01/22/2014  01:15:00     -114.066       -3.897      -12.677       11.646       10.832        9.099      135.635      117.341       82.793        0.676        0.017      114.133        7.449        0.004      331.413       -0.589      868.275
01/22/2014  01:16:00     -110.633      -17.621      -13.025       18.164       10.775        9.114      329.914      116.109       83.070        0.662        0.026      112.028        9.330        0.007      331.412       -0.590      868.271
01/22/2014  01:17:00      -91.257      -22.245      -10.143       15.848       14.452        9.971      251.145      208.848       99.415        0.474        0.028       93.929        7.557        0.006      331.379       -0.645      868.270
01/22/2014  01:18:00      -75.355      -14.823       -5.652       23.348       10.094       15.055      545.134      101.898      226.640        0.340        0.044       76.799       15.239        0.039      331.371       -0.658      868.258
01/22/2014  01:19:00      -72.300      -17.792       -6.261       15.385       14.865       11.316      236.692      220.964      128.044        0.308        0.029       74.457        9.258        0.015      331.411       -0.591      868.230
01/22/2014  01:20:00      -89.077      -22.425       -6.930       18.978       12.917        9.229      360.170      166.857       85.166        0.455        0.031       91.857        5.092        0.003      331.356       -0.681      868.201
01/22/2014  01:21:00      -99.021      -20.079       -7.400       18.855       14.682        9.043      355.520      215.551       81.783        0.546        0.033      101.036        4.241        0.002      331.292       -0.786      868.175
01/22/2014  01:22:00      -97.079      -15.090       -7.446       13.667       13.705       12.822      186.800      187.841      164.400        0.512        0.027       98.245        8.457        0.007      331.288       -0.793      868.169
01/22/2014  01:23:00      -79.432       -8.921       -7.053       23.480       12.639       11.042      551.313      159.749      121.924        0.364        0.042       79.932       11.247        0.020      331.304       -0.765      868.174
01/22/2014  01:24:00      -80.887      -11.839       -7.869       20.600       15.445        9.339      424.369      238.541       87.221        0.375        0.038       81.749        9.113        0.012      331.211       -0.920      868.194
01/22/2014  01:25:00      -63.481      -21.457       -6.938       13.694       15.175       11.283      187.521      230.274      127.311        0.254        0.027       67.009        7.802        0.014      331.174       -0.981      868.197
01/22/2014  01:26:00      -66.351      -34.394      -17.826       11.811       14.815        8.211      139.499      219.482       67.419        0.316        0.021       74.736        5.614        0.006      331.140       -1.038      868.182
01/22/2014  01:27:00      -38.331      -31.078      -12.111       22.759       17.878       13.858      517.959      319.619      192.051        0.181        0.051       49.347        8.866        0.032      331.128       -1.056      868.151
01/22/2014  01:28:00      -51.149      -27.885       -7.094       18.266       15.512       14.527      333.643      240.611      211.041        0.211        0.039       58.257        7.044        0.015      331.107       -1.093      868.106
01/22/2014  01:29:00      -12.023      -17.998        0.055       15.741       13.363       10.548      247.787      178.579      111.258        0.050        0.027       21.645        5.094        0.055      331.189       -0.957      868.067
01/22/2014  01:30:00      -37.298       -8.209       -1.470       19.539        8.853        7.899      381.776       78.377       62.394        0.099        0.026       38.191        9.728        0.065      331.093       -1.116      868.056
01/22/2014  01:31:00      -67.537       -2.542      -12.358        7.452        7.941        7.348       55.539       63.052       53.987        0.245        0.009       67.585        3.302        0.002      331.028       -1.221      868.066
01/22/2014  01:32:00      -61.063      -21.026      -16.169        7.131        8.166        5.759       50.849       66.676       33.170        0.229        0.008       64.582        3.902        0.004      331.057       -1.174      868.091
01/22/2014  01:33:00      -74.200      -12.397      -12.247       12.037       10.075       10.482      144.895      101.514      109.882        0.308        0.018       75.229        3.160        0.002      331.042       -1.199      868.126
01/22/2014  01:34:00      -92.102      -21.635      -12.522       13.427       11.763        8.561      180.278      138.373       73.284        0.475        0.020       94.609        3.514        0.001      330.921       -1.396      868.155
01/22/2014  01:35:00     -114.455      -21.531      -18.488        8.497       10.416        7.806       72.193      108.483       60.941        0.707        0.012      116.463        4.038        0.001      330.860       -1.495      868.187
01/22/2014  01:36:00     -116.399      -31.512      -13.972       14.658       14.465       11.952      214.870      209.245      142.847        0.765        0.028      120.589        7.719        0.004      330.852       -1.510      868.230
01/22/2014  01:37:00     -125.877      -12.951      -15.291       20.218        9.743       12.299      408.748       94.918      151.273        0.845        0.033      126.542       12.033        0.009      330.965       -1.323      868.263
01/22/2014  01:38:00     -105.003      -13.061       -9.574       21.876       18.152       12.160      478.546      329.508      147.867        0.612        0.048      105.812       13.398        0.016      331.017       -1.239      868.276
01/22/2014  01:39:00      -80.392      -32.811       -9.174       13.062       12.723       11.955      170.614      161.880      142.926        0.405        0.024       86.830        8.019        0.009      331.001       -1.266      868.266
01/22/2014  01:40:00      -75.843      -44.649       -5.485       11.211       13.636       10.516      125.695      185.936      110.585        0.410        0.021       88.010        7.539        0.007      331.061       -1.167      868.247
01/22/2014  01:41:00      -75.100      -42.400       -5.840       12.259       15.043       10.588      150.277      226.296      112.103        0.398        0.024       86.242        6.151        0.005      331.123       -1.065      868.220
01/22/2014  01:42:00      -62.408      -29.210       -2.071       19.851       13.135       11.040      394.052      172.521      121.889        0.272        0.034       68.906       10.256        0.022      331.086       -1.126      868.196
01/22/2014  01:43:00      -65.200      -48.860        0.074       21.794       20.302        9.852      474.996      412.151       97.054        0.381        0.049       81.476        9.366        0.013      331.164       -0.998      868.182
01/22/2014  01:44:00      -82.175      -56.397        0.361       22.472       29.772       14.683      504.983      886.372      215.596        0.577        0.080       99.666       10.191        0.010      331.310       -0.757      868.173
01/22/2014  01:45:00     -101.894      -36.486       -3.284       43.494       26.957       19.470     1891.693      726.666      379.064        0.736        0.150      108.229       16.829        0.024      331.404       -0.601      868.169
01/22/2014  01:46:00      -95.926      -68.497        0.924       39.869       29.175       18.562     1589.501      851.185      344.544        0.834        0.139      117.871       13.064        0.012      331.369       -0.660      868.182
01/22/2014  01:47:00     -120.314      -61.366       -5.055       22.047       21.351       14.269      486.075      455.877      203.595        0.971        0.057      135.060       13.331        0.010      331.324       -0.734      868.194
01/22/2014  01:48:00     -108.282      -30.187       -3.216       24.858       27.480       15.062      617.939      755.135      226.864        0.712        0.080      112.411       11.661        0.011      331.311       -0.756      868.195
01/22/2014  01:49:00      -52.088      -27.523        5.684       41.440       26.123       20.322     1717.310      682.396      412.996        0.316        0.141       58.912       21.468        0.133      331.281       -0.805      868.188
01/22/2014  01:50:00      -63.348      -43.900       -2.172       30.418       19.762       14.771      925.272      390.524      218.190        0.374        0.077       77.073       15.147        0.039      331.187       -0.958      868.167
01/22/2014  01:51:00      -59.767      -29.211        1.364       19.907       26.656       11.278      396.300      710.526      127.204        0.283        0.062       66.524       11.501        0.030      331.097       -1.109      868.149
01/22/2014  01:52:00      -87.391      -13.510       -6.931       20.834       23.254       10.862      434.061      540.739      117.974        0.448        0.055       88.429        5.470        0.004      331.177       -0.976      868.142
01/22/2014  01:53:00      -86.820        3.619        2.442       16.143       17.006       12.369      260.590      289.188      152.991        0.413        0.035       86.896       10.608        0.015      331.151       -1.019      868.150
01/22/2014  01:54:00      -81.446       -3.059       -5.114       19.727       16.638       11.323      389.136      276.827      128.200        0.373        0.040       81.504        9.448        0.013      331.073       -1.149      868.161
01/22/2014  01:55:00      -63.896       26.273        0.891       21.468       14.435       12.138      460.890      208.367      147.334        0.279        0.041       69.086        9.001        0.017      331.111       -1.084      868.172
01/22/2014  01:56:00      -37.627        7.192       -3.566       15.579       13.987        8.925      242.700      195.648       79.651        0.100        0.026       38.308        6.758        0.031      331.092       -1.117      868.178
01/22/2014  01:57:00      -35.953        8.565       -3.192       13.841       14.399       11.263      191.579      207.341      126.857        0.095        0.026       36.959        5.094        0.019      331.091       -1.118      868.184
01/22/2014  01:58:00      -48.608        5.357       -7.514       16.052        9.375        8.312      257.656       87.892       69.083        0.143        0.021       48.902        8.755        0.032      331.030       -1.219      868.190
01/22/2014  01:59:00      -64.490        7.598       -4.012       12.827       14.353       10.689      164.538      206.004      114.254        0.236        0.024       64.936        5.465        0.007      331.078       -1.138      868.202
01/22/2014  02:00:00      -70.193      -15.104       -8.921       13.249       17.228       11.583      175.530      296.787      134.163        0.292        0.030       71.799        8.178        0.013      330.914       -1.409      868.220
01/22/2014  02:01:00      -71.065      -15.393      -12.308       10.984        9.736        8.451      120.645       94.782       71.420        0.286        0.014       72.713        6.518        0.008      330.713       -1.740      868.227
01/22/2014  02:02:00      -87.377        4.794       -9.840       13.848        9.425        7.827      191.769       88.831       61.267        0.405        0.017       87.509        2.692        0.001      330.712       -1.740      868.221
01/22/2014  02:03:00     -110.362        7.213      -14.252       10.502        8.858        8.120      110.301       78.464       65.929        0.634        0.013      110.597        4.390        0.002      331.108       -1.088      868.210
01/22/2014  02:04:00     -120.501      -10.602      -14.317       13.526       15.600        8.625      182.961      243.352       74.396        0.767        0.025      120.966        4.213        0.001      331.591       -0.294      868.201
01/22/2014  02:05:00      -77.675      -36.588        0.513       27.676       13.753       12.273      765.936      189.143      150.627        0.424        0.055       85.861       13.621        0.025      331.168       -0.992      868.191
01/22/2014  02:06:00      -58.463      -38.311        0.794       18.951       18.183       14.207      359.141      330.613      201.850        0.289        0.045       69.898       11.802        0.029      331.146       -1.026      868.185
01/22/2014  02:07:00      -81.325      -34.561       -3.771       17.614       18.367       12.557      310.254      337.341      157.679        0.431        0.040       88.364       10.221        0.013      331.005       -1.259      868.167
01/22/2014  02:08:00      -93.008      -29.805       -6.603       13.486        9.633        7.020      181.879       92.803       49.276        0.495        0.016       97.666        6.045        0.004      330.885       -1.456      868.147
01/22/2014  02:09:00      -92.034      -45.316       -4.755       13.827       16.397        9.824      191.194      268.869       96.503        0.555        0.028      102.586        7.301        0.005      330.800       -1.595      868.127
01/22/2014  02:10:00      -99.868      -29.091       -2.244       24.083       23.218       12.717      579.972      539.079      161.733        0.605        0.064      104.019       11.365        0.012      330.918       -1.402      868.120
01/22/2014  02:11:00      -65.697      -11.458       -3.692       19.520       15.234       12.921      381.025      232.060      166.964        0.262        0.039       66.689       12.275        0.034      330.609       -1.908      868.129
01/22/2014  02:12:00      -74.732        4.499      -10.030       19.472       17.566        9.950      379.146      308.555       99.012        0.325        0.039       74.867        9.912        0.018      330.668       -1.812      868.141
01/22/2014  02:13:00      -79.976        5.804      -16.595       12.589       12.316       13.119      158.491      151.689      172.115        0.359        0.024       80.187        9.104        0.013      330.712       -1.740      868.169
01/22/2014  02:14:00      -73.081       25.205      -13.814       10.012       15.205        9.023      100.234      231.189       81.420        0.329        0.021       77.305        6.541        0.007      330.965       -1.323      868.195
01/22/2014  02:15:00      -67.034       -4.326       -9.244        8.477       14.463        7.018       71.860      209.186       49.259        0.246        0.017       67.173        3.253        0.002      330.900       -1.431      868.211
01/22/2014  02:16:00      -70.853      -28.806       -8.775       10.199       14.140        8.428      104.030      199.952       71.028        0.315        0.019       76.485        2.151        0.001      330.924       -1.391      868.206
01/22/2014  02:17:00      -74.102      -35.030      -15.478       12.095       16.604        9.788      146.299      275.699       95.809        0.374        0.026       81.965        6.952        0.007      330.790       -1.611      868.194
01/22/2014  02:18:00      -85.245      -33.600      -13.671       13.095       16.401        9.127      171.480      268.977       83.303        0.455        0.026       91.628        4.625        0.003      330.644       -1.853      868.188
01/22/2014  02:19:00      -69.296      -21.832      -12.344       12.328       23.879       10.981      151.970      570.184      120.591        0.314        0.042       72.653        6.384        0.008      330.650       -1.843      868.185
01/22/2014  02:20:00      -60.080      -10.343      -12.586       10.130       13.498        8.448      102.608      182.209       71.368        0.212        0.018       60.964        8.242        0.018      330.712       -1.739      868.185
01/22/2014  02:21:00      -53.711      -12.099      -12.709        8.412       11.496        8.565       70.760      132.157       73.362        0.173        0.014       55.057        2.943        0.003      330.713       -1.736      868.202
01/22/2014  02:22:00      -56.309      -21.945       -9.791        9.304       10.652       12.915       86.562      113.472      166.794        0.206        0.018       60.434        8.486        0.020      330.703       -1.755      868.221
01/22/2014  02:23:00      -60.245      -26.630      -11.340       10.156       14.501        7.946      103.146      210.270       63.141        0.242        0.019       65.869        4.516        0.005      330.705       -1.751      868.226
01/22/2014  02:24:00      -59.708      -42.050      -14.093       11.298        9.689        7.529      127.639       93.885       56.682        0.290        0.014       73.029        2.579        0.001      330.697       -1.764      868.218
01/22/2014  02:25:00      -57.627      -34.333      -14.538       20.336        9.635        8.240      413.539       92.840       67.899        0.264        0.029       67.080        5.293        0.006      330.753       -1.672      868.206
01/22/2014  02:26:00      -99.495      -17.081      -19.184       14.123       16.203        8.990      199.464      262.546       80.827        0.555        0.027      100.950        6.041        0.004      330.518       -2.057      868.196
01/22/2014  02:27:00      -86.283      -27.344      -12.477       14.421       26.726       13.734      207.976      714.293      188.610        0.473        0.056       90.512       13.231        0.021      330.471       -2.136      868.199
01/22/2014  02:28:00      -75.842      -17.112      -16.129       10.817       12.165       12.735      116.997      147.980      162.176        0.337        0.021       77.748        5.983        0.006      330.485       -2.113      868.205
01/22/2014  02:29:00      -98.829      -23.626      -17.404       21.481       19.486       12.541      461.432      379.708      157.284        0.581        0.050      101.614        8.491        0.007      330.365       -2.309      868.205
01/22/2014  02:30:00     -100.275       -4.898      -15.650       24.385       17.654       15.033      594.640      311.668      225.983        0.573        0.057      100.394       11.932        0.014      330.365       -2.308      868.200
01/22/2014  02:31:00      -87.397      -21.544      -14.589       16.864       16.499       14.951      284.385      272.212      223.536        0.455        0.039       90.013       10.925        0.015      330.392       -2.265      868.186
01/22/2014  02:32:00      -77.281      -25.416       -8.512       29.188       18.924       18.055      851.912      358.130      325.991        0.411        0.077       81.353       14.244        0.031      330.439       -2.187      868.177
01/22/2014  02:33:00      -68.485      -36.960      -19.115       25.741       19.336       15.298      662.577      373.871      234.039        0.385        0.064       77.822        6.951        0.008      330.475       -2.128      868.163
01/22/2014  02:34:00      -72.102      -31.266      -15.804       25.455       17.940       12.385      647.958      321.853      153.389        0.377        0.056       78.589        6.582        0.007      330.692       -1.772      868.151
01/22/2014  02:35:00      -95.766      -12.513      -31.736       15.208       19.540       17.687      231.296      381.816      312.813        0.563        0.046       96.580        8.298        0.007      330.584       -1.951      868.150
01/22/2014  02:36:00      -88.035       -7.328       -8.760       21.635       27.821       21.065      468.063      774.013      443.731        0.478        0.084       88.339        6.441        0.005      330.452       -2.166      868.151
01/22/2014  02:37:00     -118.371        3.665      -20.109        7.454        8.174        7.093       55.566       66.814       50.305        0.730        0.009      118.428        3.338        0.001      330.602       -1.919      868.134
01/22/2014  02:38:00     -129.400        7.862      -21.869       21.049       18.107       13.999      443.071      327.850      195.968        0.913        0.048      129.639       10.125        0.006      330.592       -1.937      868.116
01/22/2014  02:39:00     -141.567       -3.751      -20.148       14.518       15.542       11.263      210.786      241.555      126.845        1.052        0.029      141.616        6.767        0.002      330.613       -1.902      868.107
01/22/2014  02:40:00     -133.970      -13.758      -22.076       13.337       14.892       13.140      177.866      221.772      172.656        0.960        0.029      134.675        8.323        0.004      330.662       -1.821      868.113
01/22/2014  02:41:00     -107.305      -15.732      -16.433       20.527       16.907       15.266      421.347      285.833      233.040        0.649        0.047      108.452       10.390        0.009      330.582       -1.952      868.112
01/22/2014  02:42:00      -93.881      -15.098      -16.951       18.198       19.442       15.634      331.164      378.003      244.432        0.514        0.048       95.087       12.613        0.018      330.549       -2.008      868.108
01/22/2014  02:43:00      -90.604      -30.554      -14.356       22.716       30.194       15.135      516.030      911.686      229.076        0.550        0.083       95.618       11.361        0.014      330.550       -2.004      868.125
01/22/2014  02:44:00     -112.392      -22.343      -13.076       33.917       27.686       22.717     1150.355      766.534      516.084        0.787        0.122      114.592       15.949        0.019      330.549       -2.007      868.120
01/22/2014  02:45:00      -97.304      -55.482      -15.706       27.074       24.753       15.953      732.990      612.721      254.506        0.720        0.080      112.010       12.763        0.013      330.513       -2.065      868.127
01/22/2014  02:46:00      -92.390      -32.016      -10.690       30.250       32.856       21.787      915.060     1079.495      474.658        0.607        0.123       97.780       16.612        0.029      330.515       -2.063      868.126
01/22/2014  02:47:00      -76.381      -45.123      -12.407       31.139       22.043       17.243      969.661      485.895      297.324        0.489        0.088       88.714       15.256        0.030      330.503       -2.083      868.133
01/22/2014  02:48:00      -84.372      -30.436      -18.204       24.632       25.516       19.562      606.717      651.056      382.691        0.501        0.082       89.694       16.645        0.034      330.580       -1.955      868.127
01/22/2014  02:49:00      -71.327      -24.275      -14.339       22.151       18.495       15.217      490.672      342.081      231.546        0.347        0.053       75.345       10.790        0.021      330.632       -1.871      868.105
01/22/2014  02:50:00     -104.136       -5.266      -16.021       23.305       16.681       11.071      543.142      278.251      122.565        0.604        0.047      104.269        8.140        0.006      330.658       -1.827      868.086
01/22/2014  02:51:00      -94.584      -21.367      -12.928       27.750       17.997       11.972      770.035      323.891      143.338        0.540        0.062       96.968        8.354        0.007      330.648       -1.843      868.086
01/22/2014  02:52:00      -82.770      -32.004       -9.679       10.030       13.346        7.545      100.596      178.104       56.933        0.415        0.017       88.742        5.923        0.004      330.722       -1.723      868.083
01/22/2014  02:53:00      -93.281      -33.838       -8.482       11.285       12.193        9.050      127.346      148.669       81.901        0.514        0.018       99.229        5.678        0.003      330.778       -1.633      868.082
01/22/2014  02:54:00      -92.451      -20.331       -4.597       16.472       18.636       11.389      271.337      347.291      129.719        0.486        0.037       94.660        8.328        0.008      330.847       -1.519      868.098
01/22/2014  02:55:00      -69.441      -13.658       -4.022       24.334       15.003       11.143      592.158      225.084      124.172        0.298        0.047       70.771       10.797        0.023      330.743       -1.689      868.113
01/22/2014  02:56:00      -93.151      -26.806       -8.129       14.777       12.012       10.449      218.357      144.279      109.175        0.497        0.024       96.932        7.093        0.005      330.776       -1.634      868.124
01/22/2014  02:57:00      -84.632      -31.784       -6.973       31.924       19.017       15.632     1019.137      361.648      244.370        0.492        0.081       90.404       17.106        0.036      330.768       -1.648      868.140
01/22/2014  02:58:00      -87.205      -28.510        2.198       26.039       21.244       13.986      678.023      451.304      195.616        0.487        0.066       91.747       12.225        0.018      330.711       -1.743      868.167
01/22/2014  02:59:00      -89.285      -26.748        0.938       29.592       17.299       13.228      875.705      299.267      174.979        0.502        0.067       93.205       13.770        0.022      330.606       -1.915      868.177
01/22/2014  03:00:00      -76.049      -37.452        2.834       26.593       18.521       16.224      707.187      343.016      263.223        0.425        0.066       84.771       12.558        0.022      330.625       -1.883      868.158
01/22/2014  03:01:00      -20.148      -20.407        0.654       24.139       20.420       12.822      582.686      416.984      164.409        0.099        0.058       28.677       11.970        0.174      330.713       -1.738      868.137
01/22/2014  03:02:00      -38.072      -22.479       -5.584       21.568        8.677        8.592      465.177       75.286       73.828        0.130        0.031       44.213        4.756        0.012      330.715       -1.734      868.118
01/22/2014  03:03:00      -86.066      -25.049       -7.682       12.512        8.626        6.424      156.557       74.409       41.266        0.418        0.014       89.637        3.734        0.002      330.564       -1.982      868.108
01/22/2014  03:04:00      -89.575      -39.974      -10.803       14.946       17.172        9.267      223.398      294.876       85.881        0.517        0.030       98.090        3.295        0.001      330.562       -1.986      868.100
01/22/2014  03:05:00      -84.449      -46.003       -1.979       23.550       15.361       10.682      554.618      235.964      114.104        0.508        0.045       96.166        9.658        0.010      330.656       -1.831      868.082
01/22/2014  03:06:00      -67.228      -58.369        3.198       30.824       30.303       19.995      950.101      918.256      399.816        0.510        0.113       89.031       16.734        0.035      330.799       -1.597      868.056
01/22/2014  03:07:00      -61.726      -49.072        4.709       42.545       25.265       19.401     1810.090      638.313      376.413        0.453        0.141       78.855       20.408        0.067      330.828       -1.550      868.022
01/22/2014  03:08:00      -86.128      -56.597        2.970       32.543       23.374       15.975     1059.043      546.340      255.194        0.624        0.093      103.060       15.834        0.024      330.764       -1.654      867.996
01/22/2014  03:09:00      -77.186      -52.944       -4.223       35.027       22.029       20.867     1226.917      485.285      435.413        0.546        0.107       93.599       16.621        0.032      330.705       -1.751      867.988
01/22/2014  03:10:00      -96.884      -62.406       -2.685       30.897       26.674       14.489      954.638      711.526      209.934        0.758        0.094      115.243       10.110        0.008      330.676       -1.798      867.994
01/22/2014  03:11:00     -111.076      -27.966       -1.147       35.010       28.074       16.671     1225.729      788.123      277.916        0.771        0.115      114.543       16.187        0.020      330.691       -1.774      868.024
01/22/2014  03:12:00     -107.803      -22.320        1.369       36.248       24.339       21.116     1313.888      592.390      445.878        0.724        0.118      110.090       21.354        0.038      330.686       -1.782      868.056
01/22/2014  03:13:00     -119.613      -21.138       -8.478       35.101       23.254       18.313     1232.111      540.740      335.369        0.847        0.105      121.467       14.826        0.015      330.648       -1.844      868.083
01/22/2014  03:14:00      -97.284      -12.628       -6.073       42.918       44.634       25.442     1841.915     1992.184      647.303        0.707        0.224       98.100       18.750        0.037      330.493       -2.098      868.085
01/22/2014  03:15:00      -64.413      -21.311        5.549       51.706       35.893       22.259     2673.556     1288.337      495.455        0.454        0.223       67.847       24.084        0.126      330.426       -2.207      868.056
01/22/2014  03:16:00     -100.254      -41.613       -3.089       37.877       20.963       16.316     1434.696      439.450      266.208        0.697        0.107      108.548       17.667        0.026      330.450       -2.168      868.016
01/22/2014  03:17:00     -104.614      -24.382       -3.397       25.673       23.724       13.732      659.100      562.843      188.579        0.648        0.071      107.418       11.884        0.012      330.467       -2.141      867.975
01/22/2014  03:18:00      -88.916      -26.585       -2.017       27.813       24.038       18.353      773.558      577.830      336.838        0.515        0.084       92.805       19.040        0.042      330.538       -2.025      867.944
01/22/2014  03:19:00      -72.075      -16.246        2.555       26.036       18.696       15.105      677.857      349.558      228.168        0.336        0.063       73.883       12.800        0.030      330.512       -2.068      867.920
01/22/2014  03:20:00      -65.692      -17.414        0.819       30.533       27.375       15.942      932.273      749.399      254.135        0.328        0.097       67.961       10.363        0.023      330.548       -2.007      867.907
01/22/2014  03:21:00      -76.950      -18.390        3.817       32.839       22.891       16.433     1078.401      524.010      270.030        0.407        0.094       79.117       17.082        0.047      330.581       -1.955      867.905
01/22/2014  03:22:00      -78.144       -7.884        1.146       32.350       23.440       17.246     1046.516      549.421      297.412        0.403        0.095       78.540       16.609        0.045      330.563       -1.984      867.907
01/22/2014  03:23:00      -81.994       -9.283       -0.168       27.949       26.370       15.936      781.120      695.399      253.957        0.427        0.087       82.518       12.587        0.023      330.605       -1.915      867.917
01/22/2014  03:24:00      -73.743      -12.183        1.168       27.406       24.575       16.690      751.065      603.919      278.556        0.361        0.082       74.743       15.828        0.045      330.634       -1.867      867.913
01/22/2014  03:25:00      -86.525      -19.144       -1.731       34.798       23.401       15.094     1210.892      547.584      227.839        0.492        0.099       88.617       18.808        0.045      330.571       -1.971      867.910
01/22/2014  03:26:00     -100.082      -27.144       -4.531       30.732       28.575       18.624      944.428      816.525      346.838        0.644        0.105      103.697       18.806        0.033      330.468       -2.141      867.906
01/22/2014  03:27:00     -114.687      -41.283       -6.798       20.328       26.086       14.370      413.240      680.499      206.506        0.810        0.065      121.891       10.173        0.007      330.380       -2.284      867.893
01/22/2014  03:28:00     -100.466      -45.732      -12.124       18.248       21.177       14.417      332.988      448.475      207.845        0.666        0.049      110.385        8.031        0.005      330.361       -2.315      867.888
01/22/2014  03:29:00      -79.672      -32.314       -9.362       31.002       27.947       18.136      961.109      781.034      328.915        0.477        0.104       85.976       20.228        0.055      330.322       -2.381      867.876
01/22/2014  03:30:00      -42.431        3.099       -5.721       40.554       23.592       22.262     1644.641      556.566      495.610        0.227        0.135       42.544       24.830        0.341      330.353       -2.329      867.876
01/22/2014  03:31:00      -88.395       21.502      -12.383       54.741       30.839       20.757     2996.540      951.042      430.855        0.640        0.219       90.972       16.403        0.033      330.528       -2.042      867.876
01/22/2014  03:32:00     -178.980       50.046      -11.727       33.276       37.094       16.635     1107.320     1375.932      276.726        1.872        0.138      185.845       10.092        0.003      330.695       -1.768      867.887
01/22/2014  03:33:00     -154.589        0.700      -12.482       50.442       35.074       23.804     2544.418     1230.200      566.610        1.420        0.217      154.591       22.491        0.021      330.519       -2.057      867.886
01/22/2014  03:34:00     -156.602       46.842      -10.859       66.093       38.658       23.969     4368.228     1494.419      574.496        1.664        0.322      163.457       13.595        0.007      330.477       -2.126      867.890
01/22/2014  03:35:00     -158.557       57.083       -9.766       49.853       31.212       24.240     2485.332      974.172      587.560        1.627        0.202      168.519       25.115        0.022      330.638       -1.862      867.893
01/22/2014  03:36:00     -198.883       74.992      -21.979       37.783       30.810       20.848     1427.524      949.281      434.658        2.424        0.141      212.552       13.751        0.004      330.706       -1.752      867.878
01/22/2014  03:37:00     -145.159       68.865      -14.856       42.622       27.031       25.564     1816.602      730.650      653.512        1.462        0.160      160.666       18.880        0.014      330.714       -1.736      867.861
01/22/2014  03:38:00     -114.522       47.188      -12.239       42.210       27.358       22.485     1781.685      748.461      505.555        0.926        0.152      123.862       20.110        0.026      330.702       -1.755      867.834
01/22/2014  03:39:00     -106.952       28.996      -21.298       41.598       29.925       20.805     1730.422      895.501      432.836        0.790        0.153      110.813       23.558        0.045      330.841       -1.527      867.813
01/22/2014  03:40:00     -103.775        9.090      -11.223       39.710       26.657       25.286     1576.908      710.582      639.400        0.695        0.146      104.172       22.144        0.045      330.691       -1.775      867.799
01/22/2014  03:41:00     -104.962       21.713       -7.198       31.965       26.342       17.161     1021.755      693.886      294.509        0.677        0.101      107.185       15.319        0.020      330.789       -1.612      867.806
01/22/2014  03:42:00      -71.117        6.644       -7.967       28.544       35.814       19.286      814.776     1282.654      371.934        0.382        0.123       71.427       16.153        0.051      330.839       -1.531      867.800
01/22/2014  03:43:00      -60.286       -5.963       -6.425       30.533       23.527       15.070      932.246      553.533      227.107        0.271        0.086       60.580       14.927        0.061      330.686       -1.782      867.789
01/22/2014  03:44:00      -71.491      -13.511       -8.273       25.790       14.041       13.879      665.101      197.159      192.633        0.321        0.053       72.757       14.899        0.042      330.434       -2.195      867.789
01/22/2014  03:45:00      -66.715        1.781      -14.926       19.731       20.897       10.312      389.319      436.667      106.347        0.280        0.047       66.739        7.845        0.014      330.643       -1.852      867.806
01/22/2014  03:46:00      -42.881      -30.946       -5.433       23.925       26.497       14.934      572.400      702.101      223.024        0.216        0.075       52.881       12.719        0.058      330.534       -2.031      867.837
01/22/2014  03:47:00      -45.609      -20.032      -14.178       26.059       16.355       17.350      679.052      267.473      301.028        0.196        0.062       49.814       12.767        0.066      330.310       -2.400      867.853
01/22/2014  03:48:00      -81.029      -12.860       -8.409       23.282       13.674       15.019      542.058      186.984      225.568        0.388        0.048       82.043        9.352        0.013      330.269       -2.467      867.854
01/22/2014  03:49:00      -94.645      -28.404      -18.691       22.790       18.171       16.890      519.364      330.192      285.260        0.562        0.057       98.816        5.961        0.004      330.238       -2.518      867.834
01/22/2014  03:50:00      -96.586      -18.327      -23.479       19.645       20.267       16.302      385.935      410.748      265.745        0.564        0.053       98.309        3.668        0.001      330.206       -2.570      867.810
01/22/2014  03:51:00      -70.141      -31.072      -15.911       18.540       19.481       12.573      343.731      379.512      158.077        0.351        0.044       76.715       10.538        0.019      330.179       -2.613      867.789
01/22/2014  03:52:00      -86.981       -2.343      -15.356       21.639       15.850       13.662      468.246      251.221      186.639        0.436        0.045       87.012        5.137        0.003      330.242       -2.512      867.781
01/22/2014  03:53:00      -77.478       -2.394       -7.628       15.575       13.494       12.767      242.594      182.092      163.003        0.333        0.029       77.515        9.062        0.014      330.216       -2.554      867.769
01/22/2014  03:54:00      -70.614       -9.886      -12.632       12.843       11.726       11.081      164.953      137.508      122.789        0.283        0.021       71.303        8.596        0.015      330.315       -2.390      867.761
01/22/2014  03:55:00      -71.357      -33.833      -10.689       11.739       11.767        7.249      137.806      138.462       52.551        0.334        0.016       78.971        4.648        0.003      330.417       -2.223      867.746
01/22/2014  03:56:00      -55.585      -20.951       -5.795        6.781        9.135        6.135       45.982       83.453       37.642        0.186        0.008       59.402        5.217        0.008      330.556       -1.996      867.730
01/22/2014  03:57:00      -47.499      -25.891       -4.091        8.233       12.956        9.093       67.783      167.857       82.681        0.163        0.016       54.097        5.002        0.009      330.517       -2.061      867.730
01/22/2014  03:58:00      -43.932      -33.735       -6.968       15.185        9.868        7.624      230.570       97.368       58.129        0.175        0.019       55.390        3.967        0.005      330.455       -2.161      867.727
01/22/2014  03:59:00      -17.743       -3.655        4.885       10.754       10.549        7.234      115.638      111.288       52.325        0.032        0.014       18.116        7.218        0.159      330.384       -2.279      867.715
01/22/2014  04:00:00      -34.925        2.346       -3.079       13.322        5.890        7.847      177.469       34.693       61.573        0.075        0.014       35.004        3.748        0.011      330.389       -2.271      867.702
01/22/2014  04:01:00      -20.992        5.949        6.041        9.115        7.907        6.923       83.075       62.520       47.925        0.035        0.010       21.818        4.178        0.037      330.405       -2.245      867.685
01/22/2014  04:02:00      -36.812       12.254       -3.389        7.254        5.913        5.655       52.615       34.968       31.976        0.082        0.006       38.798        2.734        0.005      330.385       -2.277      867.667
01/22/2014  04:03:00      -63.703        1.861       -4.991       16.281        6.803        5.729      265.070       46.286       32.821        0.222        0.017       63.730        4.380        0.005      330.437       -2.192      867.666
01/22/2014  04:04:00      -76.734        0.306       -3.655        7.928        6.876        6.716       62.847       47.277       45.107        0.303        0.008       76.734        3.316        0.002      330.347       -2.340      867.659
01/22/2014  04:05:00      -74.984       -4.387      -10.707        9.858        9.684        9.324       97.179       93.782       86.933        0.302        0.014       75.112        5.479        0.005      330.328       -2.371      867.657
01/22/2014  04:06:00      -68.325       -7.602      -10.322       10.890        8.664        6.954      118.593       75.066       48.353        0.254        0.012       68.747        3.550        0.003      330.277       -2.454      867.655
01/22/2014  04:07:00      -62.488       -7.913       -6.847       13.527       11.646        8.995      182.991      135.628       80.916        0.221        0.020       62.987        6.219        0.010      330.233       -2.525      867.641
01/22/2014  04:08:00      -78.623      -22.271        0.499       22.474       17.353       13.050      505.079      301.123      170.294        0.383        0.049       81.717       12.554        0.024      330.241       -2.512      867.619
01/22/2014  04:09:00      -80.854      -12.280       -8.109       25.311       14.386        9.848      640.654      206.965       96.991        0.385        0.047       81.782        8.107        0.010      330.208       -2.567      867.604
01/22/2014  04:10:00      -31.358      -10.049        3.146       22.563       16.801       10.532      509.091      282.263      110.915        0.100        0.045       32.929        8.783        0.071      330.163       -2.642      867.587
01/22/2014  04:11:00      -46.307      -10.151        1.786       22.578       12.483       10.403      509.757      155.830      108.231        0.151        0.039       47.406        9.375        0.039      330.249       -2.498      867.569
01/22/2014  04:12:00      -64.423      -19.005       -0.395       20.241       15.698       12.289      409.698      246.426      151.027        0.266        0.040       67.168       10.881        0.026      330.225       -2.537      867.551
01/22/2014  04:13:00      -67.576      -18.767       -6.131       11.467       13.756        7.927      131.484      189.234       62.837        0.267        0.019       70.134        3.451        0.002      330.220       -2.546      867.539
01/22/2014  04:14:00      -46.892       -4.715       -3.178       17.206       14.287        9.333      296.033      204.131       87.102        0.141        0.029       47.129        9.902        0.044      330.229       -2.532      867.531
01/22/2014  04:15:00      -68.856       -0.905       -6.773       32.407       15.549       10.836     1050.181      241.781      117.419        0.310        0.070       68.862       13.748        0.040      330.276       -2.454      867.526
01/22/2014  04:16:00      -99.032        8.560      -11.541       10.444       10.651        7.044      109.070      113.435       49.622        0.514        0.014       99.401        4.763        0.002      330.324       -2.375      867.513
01/22/2014  04:17:00      -96.056        2.009      -16.074       14.171       13.683        9.362      200.825      187.229       87.638        0.498        0.024       96.077        4.435        0.002      330.348       -2.336      867.513
01/22/2014  04:18:00      -80.604       -9.437      -10.023       24.140       19.306       12.439      582.731      372.730      154.731        0.390        0.056       81.154       10.826        0.018      330.282       -2.444      867.503
01/22/2014  04:19:00      -73.849       -7.293       -9.636       18.123       12.783       10.755      328.451      163.411      115.663        0.310        0.030       74.208        8.618        0.013      330.289       -2.434      867.502
01/22/2014  04:20:00      -70.169      -12.174      -11.403       16.462       16.341        8.882      271.006      267.043       78.898        0.291        0.031       71.217        4.782        0.005      330.303       -2.411      867.484
01/22/2014  04:21:00      -68.108      -38.947      -12.738       27.227       16.611       13.978      741.285      275.938      195.394        0.376        0.061       78.458       13.768        0.031      330.230       -2.531      867.471
01/22/2014  04:22:00      -88.513      -41.678      -15.570       14.647       22.863       11.768      214.548      522.709      138.495        0.534        0.044       97.835        9.222        0.009      330.160       -2.646      867.452
01/22/2014  04:23:00      -95.613      -37.252      -13.202       18.226       13.397       11.790      332.195      179.489      139.014        0.568        0.033      102.613        5.139        0.003      330.000       -2.909      867.420
01/22/2014  04:24:00      -53.072      -19.616       -1.955       27.480       27.096       18.378      755.140      734.204      337.756        0.252        0.091       56.581       12.809        0.051      329.971       -2.955      867.404
01/22/2014  04:25:00      -87.312       -4.086      -23.108       22.912       20.726       17.355      524.954      429.563      301.210        0.471        0.063       87.408        9.445        0.012      330.004       -2.900      867.378
01/22/2014  04:26:00      -68.450       -5.532       -7.675       17.008       17.403       10.960      289.289      302.858      120.119        0.274        0.036       68.673        9.346        0.019      330.051       -2.822      867.351
01/22/2014  04:27:00      -81.820       -0.398      -11.748       22.070       17.078       10.797      487.089      291.656      116.579        0.386        0.045       81.821        9.906        0.015      330.064       -2.802      867.323
01/22/2014  04:28:00      -74.079      -15.769       -9.756       18.051       21.787       13.016      325.823      474.664      169.415        0.340        0.048       75.739        7.095        0.009      330.041       -2.839      867.300
01/22/2014  04:29:00      -92.065      -21.827      -13.379       21.277       21.682        9.336      452.722      470.114       87.164        0.507        0.051       94.617        7.375        0.006      330.005       -2.897      867.288
01/22/2014  04:30:00      -79.515      -26.180       -8.400       30.588       23.627       17.969      935.614      558.216      322.901        0.445        0.091       83.714       12.788        0.023      329.948       -2.993      867.297
01/22/2014  04:31:00      -70.496      -24.932        3.191       32.329       26.049       20.152     1045.187      678.572      406.114        0.387        0.106       74.775       18.054        0.058      329.873       -3.115      867.306
01/22/2014  04:32:00      -83.216      -35.269      -11.074       19.078       21.674       13.965      363.986      469.763      195.019        0.466        0.051       90.382        8.276        0.008      329.861       -3.136      867.310
01/22/2014  04:33:00      -54.714      -34.384      -10.521       22.416       16.238       13.605      502.455      263.688      185.084        0.262        0.048       64.622        9.255        0.021      329.840       -3.169      867.312
01/22/2014  04:34:00      -75.182      -25.108      -18.702       15.023       21.133       11.185      225.676      446.602      125.095        0.371        0.040       79.264        4.027        0.003      329.854       -3.146      867.310
01/22/2014  04:35:00      -95.487      -32.423      -17.256       27.062       16.196       13.090      732.325      262.302      171.360        0.582        0.058      100.841        8.514        0.007      329.756       -3.306      867.298
01/22/2014  04:36:00      -80.435      -48.501      -10.995       26.513       25.413       17.392      702.965      645.839      302.475        0.530        0.083       93.926       14.235        0.023      329.738       -3.335      867.288
01/22/2014  04:37:00      -87.716      -43.894      -12.118       27.609       24.093       19.814      762.245      580.473      392.593        0.575        0.087       98.086       14.585        0.022      329.767       -3.289      867.270
01/22/2014  04:38:00     -110.772      -41.207      -19.268       27.909       23.398       14.485      778.907      547.452      209.804        0.794        0.077      118.188        9.260        0.006      329.660       -3.464      867.266
01/22/2014  04:39:00      -76.071      -31.510      -11.222       31.501       21.764       16.096      992.291      473.682      259.088        0.432        0.086       82.339       10.001        0.015      329.708       -3.385      867.268
01/22/2014  04:40:00      -71.441      -41.881      -23.291       21.224       21.358       15.411      450.440      456.164      237.500        0.427        0.057       82.812        6.922        0.007      329.740       -3.332      867.264
01/22/2014  04:41:00      -55.306      -21.325      -12.494       24.848       17.489       22.139      617.407      305.851      490.131        0.254        0.071       59.274       10.520        0.031      329.786       -3.258      867.266
01/22/2014  04:42:00      -88.273      -27.423      -14.808       14.057       19.603       16.069      197.601      384.275      258.209        0.480        0.042       92.435       10.221        0.012      329.764       -3.294      867.267
01/22/2014  04:43:00      -93.910      -40.168      -15.882       14.914       23.446       10.134      222.429      549.725      102.690        0.578        0.044      102.140        8.276        0.007      329.695       -3.405      867.263
01/22/2014  04:44:00      -88.967      -26.854      -15.222       22.668       20.593       14.371      513.836      424.067      206.531        0.501        0.057       92.931       12.553        0.018      329.648       -3.483      867.259
01/22/2014  04:45:00      -78.895      -22.666       -4.916       26.231       16.087       18.614      688.080      258.794      346.494        0.403        0.065       82.087       13.433        0.027      329.680       -3.430      867.225
01/22/2014  04:46:00      -43.395      -25.397       -6.184       30.127       16.708       10.296      907.625      279.170      106.011        0.193        0.065       50.281        5.689        0.013      329.740       -3.333      867.196
01/22/2014  04:47:00      -38.822      -24.602       -5.355       24.970       14.544        8.452      623.484      211.540       71.439        0.152        0.045       45.960        9.134        0.039      329.785       -3.259      867.184
01/22/2014  04:48:00     -111.298      -20.945      -14.354       16.883       11.807       10.976      285.028      139.401      120.471        0.679        0.027      113.251        6.318        0.003      329.781       -3.266      867.185
01/22/2014  04:49:00     -114.374      -12.248      -12.250       18.089       18.164       14.146      327.214      329.922      200.099        0.712        0.043      115.028       11.451        0.010      329.820       -3.202      867.186
01/22/2014  04:50:00     -115.570        1.606      -18.128       19.163        9.950       10.209      367.208       99.002      104.227        0.713        0.029      115.581        6.665        0.003      329.744       -3.326      867.176
01/22/2014  04:51:00      -82.420      -11.537       -8.312       23.005       18.944       17.091      529.236      358.859      292.102        0.409        0.059       83.223       15.299        0.034      329.804       -3.228      867.155
01/22/2014  04:52:00      -82.819       -6.433       -7.461       28.641       17.288       17.402      820.297      298.890      302.841        0.419        0.071       83.068       13.835        0.028      329.790       -3.250      867.128
01/22/2014  04:53:00      -95.915      -14.157      -15.708       20.364       16.017       11.722      414.705      256.555      137.396        0.523        0.040       96.954        8.522        0.008      329.757       -3.305      867.099
01/22/2014  04:54:00      -72.999      -12.755      -12.073       12.821       18.597       12.825      164.370      345.847      164.475        0.316        0.034       74.105        9.262        0.016      329.703       -3.393      867.085
01/22/2014  04:55:00      -69.301       -6.389       -9.314       23.446       15.709       13.257      549.700      246.760      175.758        0.295        0.049       69.595       12.442        0.032      329.769       -3.285      867.074
01/22/2014  04:56:00      -83.898       -6.147      -13.452       11.265       10.752        8.382      126.909      115.607       70.254        0.379        0.016       84.123        7.303        0.008      329.844       -3.162      867.056
01/22/2014  04:57:00      -54.142      -23.418      -10.362       17.933       13.288       13.528      321.595      176.561      183.019        0.213        0.034       58.990       10.760        0.033      329.803       -3.229      867.054
01/22/2014  04:58:00       -7.679      -22.673        4.044       29.651       18.544       15.382      879.158      343.893      236.613        0.102        0.073       23.938        9.959        0.173      329.823       -3.196      867.059
01/22/2014  04:59:00      -83.088      -14.052       -8.023       21.310       16.782       12.477      454.097      281.640      155.670        0.403        0.045       84.267       11.560        0.019      329.644       -3.491      867.045
01/22/2014  05:00:00      -88.549       -0.463      -13.060       21.959       10.077       11.785      482.183      101.545      138.888        0.437        0.036       88.550        8.290        0.009      329.599       -3.563      867.030
01/22/2014  05:01:00      -89.673       -5.852      -15.273       17.574        8.221        8.383      308.846       67.591       70.273        0.438        0.022       89.864        5.645        0.004      329.688       -3.418      867.023
01/22/2014  05:02:00      -66.687       -9.405       -9.691        8.101        8.282        9.637       65.629       68.588       92.873        0.243        0.011       67.347        3.497        0.003      329.758       -3.303      867.033
01/22/2014  05:03:00      -52.843       -7.699       -8.295       11.191       11.345        8.356      125.242      128.710       69.827        0.162        0.016       53.401        5.725        0.011      329.677       -3.435      867.061
01/22/2014  05:04:00      -49.984      -11.358       -9.976        7.993       11.025        6.324       63.883      121.540       39.989        0.148        0.011       51.258        3.996        0.006      329.705       -3.389      867.073
01/22/2014  05:05:00      -34.492      -15.125       -7.325       10.399        8.056        7.356      108.145       64.891       54.111        0.085        0.011       37.663        4.359        0.013      329.747       -3.322      867.094
01/22/2014  05:06:00       -6.667      -10.410       -8.316        8.993        9.926        5.849       80.876       98.520       34.211        0.022        0.011       12.362        4.664        0.142      329.843       -3.165      867.103
01/22/2014  05:07:00       -7.994       -0.535        3.469        5.938        3.595        5.999       35.260       12.924       35.985        0.008        0.004        8.012        2.536        0.100      329.984       -2.933      867.102
01/22/2014  05:08:00       15.654       22.073        6.244       10.762        7.457        7.396      115.817       55.606       54.703        0.050        0.011       27.061        5.974        0.049      329.988       -2.927      867.111
01/22/2014  05:09:00       18.302       43.728       -1.960       11.348       13.161        7.645      128.788      173.209       58.441        0.131        0.018       47.403        1.728        0.001      330.018       -2.878      867.122
01/22/2014  05:10:00       -9.515       44.424        0.234       14.541       26.641       11.365      211.432      709.746      129.155        0.156        0.053       45.432       13.107        0.083      330.019       -2.876      867.139
01/22/2014  05:11:00       17.184       72.293       -4.554       10.689       13.707        9.936      114.250      187.874       98.726        0.297        0.020       74.307        7.234        0.009      330.190       -2.596      867.147
01/22/2014  05:12:00       15.501       80.287      -14.462        9.497       10.061        6.736       90.192      101.228       45.374        0.357        0.012       81.770        3.186        0.002      330.060       -2.809      867.158
01/22/2014  05:13:00       26.359       60.993       -7.784       10.633       21.769       10.488      113.059      473.872      109.990        0.259        0.035       66.445        9.397        0.020      330.095       -2.754      867.169
01/22/2014  05:14:00       13.807        4.993        5.307       25.854       21.739       13.856      668.405      472.577      191.994        0.079        0.067       14.682       14.773        1.012      330.060       -2.808      867.184
01/22/2014  05:15:00       16.007       47.395       -7.515       13.227       24.598        8.246      174.952      605.080       67.993        0.170        0.042       50.025        9.063        0.033      330.145       -2.670      867.200
01/22/2014  05:16:00        6.000       87.157      -10.042        6.694       12.305        5.910       44.803      151.407       34.925        0.398        0.012       87.364        2.292        0.001      330.258       -2.484      867.208
01/22/2014  05:17:00        6.741       44.742      -10.112       17.606       26.966        8.802      309.978      727.146       77.469        0.163        0.056       45.247       11.115        0.060      330.253       -2.493      867.208
01/22/2014  05:18:00      -37.606        4.987       -2.755       23.265       18.792        7.693      541.263      353.128       59.188        0.120        0.048       37.935        4.623        0.015      329.803       -3.229      867.198
01/22/2014  05:19:00      -67.034      -14.728      -19.748       12.791       11.361        7.221      163.608      129.061       52.142        0.272        0.017       68.633        4.136        0.004      329.422       -3.854      867.185
01/22/2014  05:20:00      -55.224       -5.462      -13.938       17.295        7.580        6.911      299.118       57.454       47.763        0.184        0.020       55.494        4.390        0.006      329.493       -3.736      867.166
01/22/2014  05:21:00      -30.058       -6.586       -4.473        8.300        5.946        4.475       68.893       35.357       20.022        0.055        0.006       30.771        3.240        0.011      329.942       -3.002      867.146
01/22/2014  05:22:00      -15.491       -7.764       -1.287        8.699        7.203        4.953       75.671       51.889       24.531        0.023        0.008       17.327        1.534        0.008      330.016       -2.880      867.120
01/22/2014  05:23:00        1.437       10.543       -1.988       15.314       10.510       10.612      234.506      110.454      112.620        0.029        0.023       10.641        6.356        0.357      330.015       -2.883      867.109
01/22/2014  05:24:00       10.273       27.735       -2.165        8.226        9.562        4.540       67.670       91.427       20.616        0.053        0.009       29.576        3.865        0.017      330.200       -2.579      867.102
01/22/2014  05:25:00       16.481       27.268       -5.690       11.613       11.026        6.222      134.854      121.574       38.707        0.067        0.015       31.862        6.065        0.036      330.193       -2.590      867.100
01/22/2014  05:26:00        1.990       29.125       -0.406        6.420        5.313        4.005       41.214       28.231       16.040        0.047        0.004       29.192        4.055        0.019      330.231       -2.528      867.099
01/22/2014  05:27:00       -1.824       21.721       -1.383        6.194        6.061        3.812       38.363       36.731       14.528        0.028        0.004       21.797        3.188        0.021      330.227       -2.534      867.101
01/22/2014  05:28:00       -4.087       23.394        0.082        8.135        6.744        6.183       66.186       45.480       38.236        0.036        0.007       23.749        6.308        0.071      330.194       -2.588      867.095
01/22/2014  05:29:00      -10.908        5.893        5.543       10.317        6.049        5.513      106.437       36.593       30.398        0.018        0.009       12.399        3.118        0.063      329.828       -3.188      867.101
01/22/2014  05:30:00        1.171       23.945        0.601        5.431        7.566        5.923       29.501       57.246       35.078        0.035        0.006       23.974        5.610        0.055      330.193       -2.589      867.104
01/22/2014  05:31:00        4.445       21.337       -3.036        8.629        7.177        5.955       74.461       51.511       35.462        0.032        0.008       21.795        3.625        0.028      330.169       -2.632      867.100
01/22/2014  05:32:00       14.313       13.913        1.685        4.602        5.436        5.676       21.182       29.547       32.214        0.024        0.004       19.961        2.259        0.013      330.136       -2.686      867.095
01/22/2014  05:33:00        4.973       11.473        6.417        5.356        6.840        6.262       28.688       46.781       39.211        0.016        0.006       12.505        3.957        0.100      330.102       -2.739      867.100
01/22/2014  05:34:00       29.234       21.300       17.377        6.977        9.930        8.011       48.678       98.596       64.176        0.091        0.011       36.170        3.969        0.012      330.076       -2.784      867.106
01/22/2014  05:35:00       47.749       24.484       13.886        9.479        6.393       10.906       89.857       40.876      118.932        0.166        0.012       53.660        5.875        0.012      330.141       -2.676      867.102
01/22/2014  05:36:00       52.128       22.431        9.251        7.673        6.449        7.727       58.882       41.592       59.705        0.173        0.008       56.750        3.046        0.003      330.110       -2.729      867.114
01/22/2014  05:37:00       62.325       28.694       11.433       10.359        7.820        6.418      107.312       61.152       41.195        0.252        0.010       68.613        3.392        0.002      330.103       -2.741      867.128
01/22/2014  05:38:00       63.264       27.295        8.748       11.572       12.380        8.414      133.902      153.276       70.798        0.259        0.018       68.901        5.238        0.006      330.104       -2.738      867.141
01/22/2014  05:39:00       48.792       32.869       13.661       11.154        9.082        7.807      124.413       82.490       60.943        0.196        0.013       58.830        3.374        0.003      330.078       -2.780      867.146
01/22/2014  05:40:00       44.648       26.122        9.125       17.149        7.940        7.893      294.077       63.039       62.298        0.159        0.021       51.728        4.291        0.007      330.084       -2.771      867.143
01/22/2014  05:41:00       58.720       22.217        5.544       16.168       10.009        8.618      261.411      100.180       74.263        0.220        0.022       62.782        4.678        0.006      330.108       -2.732      867.131
01/22/2014  05:42:00       71.248       31.965       15.835       19.485       13.136       17.952      379.679      172.545      322.280        0.361        0.044       78.090       15.088        0.037      330.099       -2.744      867.105
01/22/2014  05:43:00       35.770       21.942       26.282       11.918       12.285       10.490      142.041      150.928      110.040        0.143        0.020       41.964        7.107        0.029      330.061       -2.807      867.092
01/22/2014  05:44:00       18.427        9.926       15.411       11.058       10.384       13.623      122.282      107.831      185.600        0.055        0.021       20.930        4.789        0.052      330.090       -2.761      867.094
01/22/2014  05:45:00       28.509        9.857        9.408       11.942        9.321        8.774      142.607       86.880       76.977        0.065        0.015       30.165        7.227        0.057      330.168       -2.632      867.090
01/22/2014  05:46:00       30.845       24.060        0.283        9.296       10.979        6.465       86.415      120.532       41.794        0.089        0.012       39.119        5.400        0.019      330.272       -2.462      867.096
01/22/2014  05:47:00       28.702       30.070       -1.739        7.954       12.160        9.797       63.262      147.859       95.987        0.102        0.015       41.569        8.319        0.040      330.272       -2.460      867.102
01/22/2014  05:48:00       24.722       52.352       -2.114        7.580       18.341       10.027       57.463      336.398      100.542        0.193        0.025       57.896       11.103        0.037      330.357       -2.322      867.110
01/22/2014  05:49:00       33.763       70.152       -5.683       10.212       11.201        9.087      104.295      125.461       82.574        0.320        0.016       77.854        3.680        0.002      330.428       -2.206      867.116
01/22/2014  05:50:00       38.256       39.880       -1.381       18.131       19.002       14.719      328.744      361.090      216.647        0.198        0.045       55.262       11.306        0.042      330.330       -2.365      867.111
01/22/2014  05:51:00       55.035       40.227        4.269       23.574       19.889       19.512      555.740      395.558      380.708        0.300        0.067       68.169       17.281        0.064      330.311       -2.396      867.110
01/22/2014  05:52:00       41.658       45.402        5.287       24.540       22.235       18.231      602.209      494.388      332.371        0.263        0.071       61.618       12.238        0.039      330.300       -2.416      867.093
01/22/2014  05:53:00       21.792       37.592        0.472       19.922       21.039       14.108      396.874      442.643      199.040        0.146        0.052       43.451       11.215        0.067      330.287       -2.436      867.073
01/22/2014  05:54:00       13.017       56.519       -8.000       12.219       10.336        7.286      149.300      106.831       53.084        0.187        0.015       57.999        5.302        0.008      330.355       -2.324      867.048
01/22/2014  05:55:00        0.876       65.539       -9.702       12.053        8.411        6.154      145.278       70.738       37.874        0.232        0.013       65.545        3.459        0.003      330.411       -2.235      867.038
01/22/2014  05:56:00      -11.837       41.670       -0.215       15.793       22.232       10.831      249.409      494.240      117.304        0.137        0.043       43.319        7.133        0.027      330.319       -2.382      867.049
01/22/2014  05:57:00      -47.858      -16.060       -7.274       15.321        9.962        8.166      234.719       99.243       66.678        0.150        0.020       50.480        7.371        0.021      330.076       -2.784      867.058
01/22/2014  05:58:00      -30.131      -25.032      -11.217       21.098       11.609        7.438      445.118      134.772       55.331        0.115        0.032       39.173        6.756        0.030      329.914       -3.048      867.070
01/22/2014  05:59:00      -15.981      -43.345      -10.622       16.124       11.930        9.822      259.994      142.316       96.463        0.137        0.025       46.198        4.296        0.009      329.858       -3.139      867.066
01/22/2014  06:00:00      -39.758      -24.178       -7.011       11.283       14.118        8.091      127.299      199.313       65.460        0.130        0.020       46.532        3.114        0.004      330.228       -2.532      867.046
01/22/2014  06:01:00      -64.842       -2.841       -6.555        8.921        6.390        5.380       79.580       40.837       28.948        0.220        0.007       64.904        3.908        0.004      330.088       -2.763      867.020
01/22/2014  06:02:00      -72.945      -23.874      -12.963       13.425       11.870        8.608      180.241      140.902       74.099        0.323        0.020       76.752        5.254        0.005      329.689       -3.417      866.988
01/22/2014  06:03:00     -104.586       -4.685       -8.891       14.945       17.952       10.178      223.344      322.280      103.600        0.584        0.032      104.691        8.242        0.006      329.591       -3.578      866.970
01/22/2014  06:04:00      -84.240        8.965      -11.922       14.197       11.727        8.632      201.557      137.513       74.513        0.387        0.021       84.715        4.454        0.003      329.743       -3.327      866.960
01/22/2014  06:05:00      -75.340        7.430       -7.422       26.302       21.559       16.452      691.781      464.775      270.669        0.361        0.071       75.705       14.739        0.038      329.688       -3.417      866.963
01/22/2014  06:06:00      -88.729      -16.748       -8.532       25.118       21.512       12.638      630.934      462.758      159.711        0.474        0.063       90.296       11.188        0.015      329.594       -3.572      866.987
01/22/2014  06:07:00      -66.160       -5.279      -10.864       22.643       24.058       15.268      512.701      578.798      233.119        0.292        0.066       66.370        6.494        0.010      329.589       -3.579      867.000
01/22/2014  06:08:00      -60.583       -7.167       -0.044       55.455       29.278       20.917     3075.220      857.184      437.538        0.404        0.218       61.006       21.633        0.126      329.681       -3.429      866.992
01/22/2014  06:09:00     -110.912      -15.223       -7.372       34.503       31.239       17.942     1190.459      975.865      321.921        0.754        0.124      111.952       17.631        0.025      329.732       -3.345      866.977
01/22/2014  06:10:00      -60.065       -8.622        2.656       46.396       31.817       19.631     2152.582     1012.295      385.357        0.362        0.178       60.681       17.770        0.086      329.701       -3.396      866.963
01/22/2014  06:11:00      -96.405       -1.903       -9.533       34.494       33.939       19.141     1189.820     1151.866      366.365        0.605        0.135       96.424       17.049        0.031      329.697       -3.403      866.950
01/22/2014  06:12:00     -108.825      -28.969       -2.358       31.155       28.480       19.043      970.660      811.083      362.643        0.742        0.107      112.615       17.762        0.025      329.648       -3.484      866.936
01/22/2014  06:13:00     -109.347      -21.518       -6.940       28.172       22.811       16.416      793.654      520.350      269.499        0.703        0.079      111.444       14.339        0.017      329.655       -3.471      866.912
01/22/2014  06:14:00     -117.433      -38.740       -5.168       30.000       20.180       15.949      899.991      407.225      254.369        0.844        0.078      123.658       16.607        0.018      329.653       -3.475      866.884
01/22/2014  06:15:00     -130.713      -53.327       -8.759       18.038       22.029       12.488      325.380      485.298      155.947        1.049        0.048      141.172        7.266        0.003      329.682       -3.427      866.857
01/22/2014  06:16:00     -118.875      -53.899       -1.760       26.066       25.779       17.649      679.414      664.543      311.493        0.935        0.083      130.524       16.349        0.016      329.778       -3.270      866.840
01/22/2014  06:17:00     -100.453      -52.638        1.182       43.192       31.284       22.076     1865.529      978.683      487.347        0.810        0.167      113.409       23.878        0.044      329.790       -3.249      866.836
01/22/2014  06:18:00      -96.045      -59.006        0.228       47.262       28.271       21.018     2233.666      799.260      441.760        0.809        0.174      112.722       22.052        0.038      329.817       -3.207      866.840
01/22/2014  06:19:00     -138.089      -64.990       -3.203       34.411       27.638       17.897     1184.094      763.881      320.293        1.278        0.113      152.618       17.835        0.014      329.805       -3.226      866.839
01/22/2014  06:20:00     -134.897      -88.932       -6.198       39.224       36.664       22.383     1538.523     1344.269      500.993        1.476        0.169      161.574       16.496        0.010      329.780       -3.268      866.830
01/22/2014  06:21:00     -115.435      -79.042       -2.190       43.270       31.061       25.075     1872.286      964.765      628.744        1.152        0.173      139.903       23.096        0.027      329.797       -3.239      866.839
01/22/2014  06:22:00     -112.846      -42.599       -3.410       26.232       29.474       16.577      688.094      868.739      274.787        0.820        0.092      120.619       12.110        0.010      329.689       -3.416      866.862
01/22/2014  06:23:00     -123.869      -32.043       -2.887       37.733       26.565       21.350     1423.745      705.705      455.802        0.948        0.129      127.946       22.770        0.032      329.673       -3.443      866.903
01/22/2014  06:24:00     -130.102      -26.730       -7.122       29.883       23.214       20.075      892.999      538.888      403.009        0.976        0.092      132.819       19.328        0.021      329.601       -3.560      866.945
01/22/2014  06:25:00     -109.774      -14.763       -2.664       39.854       36.040       25.511     1588.340     1298.892      650.794        0.791        0.177      110.762       22.569        0.042      329.601       -3.560      866.978
01/22/2014  06:26:00      -42.659      -19.856        1.246       26.934       33.869       20.406      725.465     1147.108      416.388        0.225        0.114       47.054       16.613        0.125      329.622       -3.526      866.990
01/22/2014  06:27:00      -80.932      -24.988       -4.282       17.285       15.687       11.504      298.758      246.097      132.341        0.393        0.034       84.701        9.195        0.012      329.699       -3.400      866.985
01/22/2014  06:28:00      -99.850      -31.477      -12.404       17.360       15.616        9.754      301.367      243.874       95.134        0.588        0.032      104.694        6.676        0.004      329.824       -3.196      866.968
01/22/2014  06:29:00      -84.024      -38.942       -9.667       15.849       14.891       10.803      251.197      221.751      116.702        0.463        0.029       92.609        7.472        0.007      329.712       -3.379      866.959
01/22/2014  06:30:00     -100.089      -22.916      -12.372       12.562       14.904        7.911      157.797      222.126       62.585        0.557        0.022      102.679        6.692        0.004      329.695       -3.406      866.964
01/22/2014  06:31:00      -83.900       -3.973       -9.866       17.268       11.182        8.773      298.168      125.044       76.958        0.383        0.025       83.994        7.319        0.008      329.780       -3.267      866.976
01/22/2014  06:32:00      -70.705      -21.044       -7.198        6.938       13.655        6.095       48.141      186.464       37.149        0.288        0.014       73.770        4.003        0.003      329.917       -3.044      866.987
01/22/2014  06:33:00      -79.573      -46.023       -9.760        9.118       10.097        6.668       83.141      101.944       44.465        0.439        0.011       91.923        3.340        0.001      329.953       -2.984      866.984
01/22/2014  06:34:00      -85.797      -38.320       -4.925       11.480       16.516        9.047      131.784      272.779       81.851        0.467        0.024       93.966        4.813        0.003      329.853       -3.147      866.968
01/22/2014  06:35:00      -89.757      -15.327       -4.595       19.611       11.445        8.189      384.590      130.986       67.058        0.445        0.029       91.056        6.949        0.006      329.736       -3.341      866.951
01/22/2014  06:36:00      -59.797       -6.779       -3.242       15.995       15.303       10.767      255.853      234.175      115.927        0.212        0.030       60.180        9.108        0.023      329.725       -3.359      866.940
01/22/2014  06:37:00      -87.431      -15.025      -11.531       14.749        8.205        7.104      217.533       67.316       50.474        0.417        0.017       88.713        3.388        0.001      329.850       -3.154      866.930
01/22/2014  06:38:00      -95.764      -17.665       -8.833        8.045       12.394        8.843       64.718      153.608       78.191        0.493        0.015       97.379        2.697        0.001      329.873       -3.114      866.931
01/22/2014  06:39:00      -62.911      -27.904       -6.559       16.021       11.840        8.438      256.673      140.184       71.196        0.262        0.023       68.822        5.048        0.005      329.695       -3.406      866.929
01/22/2014  06:40:00      -75.883      -24.412      -11.016       14.258       13.658       10.252      203.288      186.529      105.094        0.349        0.025       79.713        6.313        0.006      329.691       -3.412      866.934
01/22/2014  06:41:00      -70.098      -30.148       -6.948       13.902       20.216       10.595      193.263      408.693      112.264        0.329        0.036       76.306        8.091        0.011      329.490       -3.743      866.955
01/22/2014  06:42:00      -71.760      -10.887       -5.768       21.016       22.104       10.537      441.668      488.568      111.018        0.317        0.052       72.581        9.089        0.016      329.442       -3.821      866.973
01/22/2014  06:43:00      -75.533       -2.746       -4.798       27.572       16.584       14.490      760.200      275.034      209.957        0.349        0.062       75.583        9.664        0.016      329.511       -3.707      866.981
01/22/2014  06:44:00      -36.625       -6.008        1.947       37.324       20.986       17.802     1393.055      440.411      316.897        0.177        0.108       37.114       16.726        0.203      329.508       -3.712      866.981
01/22/2014  06:45:00      -17.218      -12.573       -1.790       22.945       26.225       16.218      526.455      687.775      263.039        0.097        0.074       21.320       14.069        0.435      329.635       -3.504      866.978
01/22/2014  06:46:00      -18.959       -9.602      -10.645       26.582       39.245       17.871      706.587     1540.137      319.386        0.157        0.128       21.252       18.003        0.718      329.735       -3.340      866.984
01/22/2014  06:47:00      -30.121       -3.577       -5.946       31.684       22.297       19.074     1003.904      497.143      363.824        0.141        0.093       30.332       19.475        0.412      329.722       -3.362      866.991
01/22/2014  06:48:00      -43.779        6.971      -14.065       32.024       29.161       17.867     1025.562      850.348      319.241        0.218        0.110       44.330       15.538        0.123      329.700       -3.397      866.993
01/22/2014  06:49:00      -40.320       -2.046       -4.874       37.462       26.444       15.492     1403.431      699.291      239.987        0.200        0.117       40.372       16.717        0.171      329.721       -3.365      866.994
01/22/2014  06:50:00      -20.427      -19.362       -1.149       28.506       29.539       14.559      812.598      872.555      211.970        0.134        0.095       28.145       13.056        0.215      329.766       -3.290      866.981
01/22/2014  06:51:00      -81.269      -24.128       -8.541       16.025       19.107        9.987      256.796      365.076       99.730        0.399        0.036       84.776        4.100        0.002      329.725       -3.357      866.958
01/22/2014  06:52:00      -86.258      -10.658       -8.670       15.767       13.003       10.569      248.601      169.075      111.707        0.408        0.026       86.914        7.505        0.007      329.732       -3.345      866.929
01/22/2014  06:53:00      -52.774      -28.162       -1.408       13.220       12.917        9.426      174.758      166.852       88.852        0.201        0.022       59.818        8.454        0.020      329.819       -3.203      866.924
01/22/2014  06:54:00      -25.851      -20.140        3.196       12.234        7.323        8.762      149.682       53.632       76.770        0.068        0.014       32.771        5.777        0.031      329.855       -3.144      866.920
01/22/2014  06:55:00      -37.349      -10.612       -5.565       14.362        8.929        5.595      206.274       79.723       31.303        0.093        0.016       38.827        4.874        0.016      329.855       -3.144      866.916
01/22/2014  06:56:00      -58.639      -12.802       -4.156        9.290       10.420        5.460       86.296      108.579       29.810        0.192        0.011       60.020        4.611        0.006      329.822       -3.199      866.916
01/22/2014  06:57:00      -50.795      -31.972       -0.074       11.903       11.886        8.188      141.677      141.278       67.045        0.198        0.018       60.019        6.052        0.010      329.798       -3.239      866.922
01/22/2014  06:58:00      -40.595      -22.568       -1.311        9.064        7.405        6.542       82.157       54.830       42.804        0.117        0.009       46.446        4.846        0.011      329.788       -3.253      866.934
01/22/2014  06:59:00      -17.697       -3.633       -6.094       13.346        8.426        5.243      178.123       70.999       27.491        0.032        0.014       18.066        4.331        0.057      329.879       -3.105      866.946
01/22/2014  07:00:00      -19.453        6.078       -6.809       15.023        8.942        7.830      225.690       79.957       61.306        0.041        0.018       20.380        7.369        0.131      330.273       -2.460      866.953
01/22/2014  07:01:00      -35.106       -1.770        0.802       17.221       12.846        6.430      296.551      165.023       41.351        0.087        0.025       35.150        8.060        0.053      330.146       -2.668      866.943
01/22/2014  07:02:00      -28.708       -5.792       -1.312        9.964        8.692        8.232       99.276       75.555       67.765        0.055        0.012       29.287        6.396        0.048      329.900       -3.070      866.922
01/22/2014  07:03:00      -38.156        7.889       -2.542        7.600        5.475        3.769       57.764       29.973       14.204        0.081        0.005       38.963        2.573        0.004      329.875       -3.113      866.918
01/22/2014  07:04:00      -43.013        3.178        1.087        7.128        6.151        6.878       50.814       37.834       47.303        0.100        0.007       43.130        4.342        0.010      329.830       -3.186      866.922
01/22/2014  07:05:00        0.467       16.480        5.827       13.425       11.847        8.181      180.240      140.358       66.934        0.035        0.019       16.486        7.015        0.181      330.006       -2.898      866.929
01/22/2014  07:06:00        7.135        4.067        8.288       12.513       12.685        6.393      156.583      160.906       40.865        0.025        0.018        8.213        4.185        0.260      330.038       -2.845      866.949
01/22/2014  07:07:00        2.675       15.854        1.425       11.078        8.091        5.054      122.716       65.469       25.544        0.024        0.011       16.078        4.780        0.088      330.050       -2.825      866.963
01/22/2014  07:08:00        7.528       13.194        0.785        5.216        7.845        6.788       27.210       61.544       46.070        0.018        0.007       15.191        2.236        0.022      330.065       -2.801      866.962
01/22/2014  07:09:00       26.219       30.053        5.331        7.046        8.942        9.026       49.645       79.964       81.463        0.091        0.011       39.882        4.934        0.015      330.046       -2.831      866.960
01/22/2014  07:10:00       29.243       33.652        0.865        6.618        6.475       10.185       43.793       41.920      103.736        0.109        0.009       44.583        5.773        0.017      329.966       -2.962      866.956
01/22/2014  07:11:00       25.800       19.292        0.695        8.195        6.496        5.470       67.160       42.192       29.918        0.059        0.007       32.215        2.074        0.004      329.923       -3.034      866.949
01/22/2014  07:12:00       34.153       22.786        1.772        6.081        6.656        5.949       36.977       44.306       35.396        0.090        0.006       41.056        2.388        0.003      329.933       -3.018      866.933
01/22/2014  07:13:00       23.353       23.043       -3.302        7.494        4.677        4.269       56.156       21.876       18.227        0.059        0.005       32.808        2.279        0.005      329.895       -3.079      866.933
01/22/2014  07:14:00        4.873       21.242       -5.403        7.166        7.333        5.053       51.355       53.768       25.533        0.032        0.007       21.794        4.054        0.035      329.848       -3.158      866.939
01/22/2014  07:15:00        8.174       32.712       -8.905        6.967        6.502        6.091       48.543       42.270       37.101        0.067        0.006       33.718        4.941        0.021      329.867       -3.125      866.942
01/22/2014  07:16:00       -2.125       33.236       -7.013        4.192        6.319        4.185       17.569       39.926       17.516        0.062        0.004       33.304        2.744        0.007      329.930       -3.020      866.940
01/22/2014  07:17:00        0.241       11.215        6.201        5.221        8.584        6.668       27.263       73.692       44.463        0.015        0.007       11.218        4.718        0.177      329.918       -3.043      866.927
01/22/2014  07:18:00       -7.977        0.892        6.261       11.176        4.971        4.454      124.912       24.715       19.839        0.014        0.008        8.027        4.613        0.330      329.834       -3.179      866.920
01/22/2014  07:19:00      -70.563       -6.359       -9.651       23.383        8.106        7.019      546.756       65.711       49.267        0.289        0.033       70.849        5.263        0.006      329.636       -3.503      866.918
01/22/2014  07:20:00      -58.205       -3.594       -9.654       17.590        6.552        7.550      309.400       42.928       57.000        0.195        0.020       58.316        8.808        0.023      329.676       -3.439      866.922
01/22/2014  07:21:00      -30.958       -7.728       -6.506        7.445        5.441        4.434       55.431       29.603       19.658        0.058        0.005       31.908        2.534        0.006      329.736       -3.339      866.935
01/22/2014  07:22:00      -19.031       -1.091       -2.669        6.584        3.995        5.552       43.354       15.963       30.828        0.023        0.005       19.063        5.131        0.072      329.796       -3.241      866.949
01/22/2014  07:23:00      -18.752        3.463        0.939        7.330        6.857        3.207       53.730       47.021       10.285        0.024        0.006       19.069        1.808        0.009      329.739       -3.333      866.954
01/22/2014  07:24:00      -13.162       18.146        2.060        9.437        8.803        3.744       89.054       77.495       14.016        0.034        0.009       22.417        3.331        0.022      329.826       -3.193      866.956
01/22/2014  07:25:00      -12.440        8.689        7.493        6.626        5.131        4.761       43.902       26.326       22.671        0.019        0.005       15.174        1.746        0.013      329.811       -3.217      866.960
01/22/2014  07:26:00      -25.982        6.276        6.491        4.743        6.752        5.571       22.497       45.587       31.033        0.043        0.005       26.729        4.007        0.022      329.709       -3.382      866.974
01/22/2014  07:27:00      -31.661       -4.469       -3.326        4.723        5.255        4.325       22.303       27.612       18.705        0.055        0.003       31.975        1.769        0.003      329.616       -3.538      866.983
01/22/2014  07:28:00      -35.470       -8.648       -8.324        7.375        6.516        5.396       54.394       42.454       29.113        0.076        0.006       36.509        2.198        0.004      329.652       -3.476      866.975
01/22/2014  07:29:00      -35.724      -10.552       -8.099        9.028        8.720        7.771       81.507       76.031       60.381        0.084        0.011       37.250        4.163        0.012      329.624       -3.523      866.955
01/22/2014  07:30:00      -67.925      -15.853       -9.255       14.947       15.617       11.373      223.409      243.893      129.342        0.277        0.030       69.751        3.109        0.002      329.458       -3.793      866.928
01/22/2014  07:31:00      -89.777       -2.938       -6.997       17.090       11.802       12.302      292.078      139.285      151.329        0.435        0.029       89.825        7.711        0.007      329.464       -3.784      866.914
01/22/2014  07:32:00      -80.812       -2.280       -8.274        9.772        7.216        8.149       95.499       52.072       66.403        0.341        0.011       80.845        4.821        0.004      329.460       -3.790      866.899
01/22/2014  07:33:00      -67.855       -4.501       -5.845       21.184       10.357       10.381      448.763      107.259      107.760        0.266        0.033       68.004       10.018        0.022      329.452       -3.804      866.888
01/22/2014  07:34:00      -74.684      -12.263       -4.051       19.223       19.835       12.895      369.523      393.419      166.273        0.334        0.046       75.685       11.622        0.024      329.506       -3.715      866.901
01/22/2014  07:35:00      -92.858       -7.108       -5.863       25.703       16.507       12.897      660.655      272.466      166.333        0.490        0.055       93.130       11.492        0.015      329.523       -3.689      866.928
01/22/2014  07:36:00      -93.650        0.134      -10.741       26.259       16.492       15.636      689.547      271.987      244.470        0.505        0.060       93.650        9.661        0.011      329.553       -3.639      866.952
01/22/2014  07:37:00      -79.957       15.488      -12.739       28.577       21.850       17.238      816.634      477.437      297.157        0.419        0.080       81.443       14.809        0.033      329.628       -3.516      866.960
01/22/2014  07:38:00      -91.770       38.178      -12.418       43.689       26.072       20.076     1908.699      679.762      403.050        0.651        0.150       99.394       15.921        0.026      329.750       -3.316      866.972
01/22/2014  07:39:00      -98.264       40.259      -10.281       37.776       26.675       21.939     1427.027      711.531      481.301        0.700        0.131      106.191       12.369        0.014      329.814       -3.211      866.990
01/22/2014  07:40:00      -95.321       49.994       -6.788       35.628       28.007       22.634     1269.336      784.414      512.293        0.710        0.128      107.637       15.541        0.021      329.817       -3.208      867.009
01/22/2014  07:41:00     -125.182       42.103      -11.085       37.787       23.040       19.966     1427.875      530.853      398.646        0.996        0.118      132.073       18.509        0.020      329.879       -3.106      867.013
01/22/2014  07:42:00      -87.634      -15.375       -6.169       26.604       28.837       16.769      707.777      831.569      281.195        0.489        0.091       88.972       18.671        0.044      329.911       -3.053      867.026
01/22/2014  07:43:00      -63.331      -12.711       -9.030       18.813       28.120       15.367      353.931      790.745      236.138        0.282        0.069       64.594        7.036        0.012      329.904       -3.064      867.036
01/22/2014  07:44:00      -51.757      -30.888      -13.041       19.615       19.431       13.315      384.764      377.576      177.287        0.237        0.047       60.273        8.164        0.018      329.984       -2.934      867.018
01/22/2014  07:45:00      -59.917      -25.350       -2.500       18.684       15.873       17.658      349.081      251.945      311.792        0.258        0.046       65.058       11.106        0.029      329.989       -2.925      867.020
01/22/2014  07:46:00      -62.327      -22.998       -5.250        8.997       14.984        8.983       80.939      224.510       80.699        0.241        0.019       66.434        3.572        0.003      329.962       -2.969      867.028
01/22/2014  07:47:00      -71.494      -22.107       -9.948       10.811       14.508        8.174      116.880      210.495       66.819        0.305        0.020       74.834        6.528        0.008      329.837       -3.174      867.035
01/22/2014  07:48:00      -71.650      -21.282      -12.243       16.094       14.937       11.311      259.003      223.121      127.950        0.317        0.031       74.744        7.428        0.010      329.759       -3.303      867.057
01/22/2014  07:49:00      -65.805       -8.484       -9.335       20.403        8.913       11.215      416.281       79.439      125.785        0.256        0.031       66.349        9.717        0.021      329.717       -3.371      867.072
01/22/2014  07:50:00      -55.163      -14.693       -5.472       14.381       16.047       13.021      206.819      257.496      169.537        0.196        0.032       57.086        6.915        0.015      329.795       -3.244      867.073
01/22/2014  07:51:00      -49.966      -16.612       -7.307       14.813       14.268       10.020      219.423      203.569      100.395        0.167        0.026       52.655        6.336        0.014      329.901       -3.069      867.050
01/22/2014  07:52:00      -52.544       -9.677      -11.922       14.230       15.314       10.053      202.487      234.517      101.057        0.177        0.027       53.428        5.514        0.011      330.086       -2.766      867.000
01/22/2014  07:53:00      -58.748      -26.074      -10.113       13.600       17.562        9.232      184.951      308.413       85.232        0.241        0.029       64.274        5.587        0.008      330.124       -2.704      866.969
01/22/2014  07:54:00      -61.491      -21.335      -10.981       10.693       12.081        9.501      114.338      145.941       90.275        0.235        0.018       65.087        4.883        0.006      330.090       -2.760      866.945
01/22/2014  07:55:00      -68.766      -18.776       -4.955       18.880       11.894       12.605      356.466      141.466      158.877        0.288        0.033       71.283       11.143        0.024      330.038       -2.846      866.930
01/22/2014  07:56:00      -43.657      -28.529       -2.014       15.268       15.155       10.039      233.116      229.688      100.791        0.164        0.028       52.152        8.736        0.028      330.123       -2.707      866.921
01/22/2014  07:57:00      -36.111      -30.003       -8.296       17.692        9.951       11.929      313.013       99.027      142.304        0.141        0.028       46.949        8.539        0.033      330.203       -2.575      866.924
01/22/2014  07:58:00      -47.312      -28.813       -7.135       11.319       11.273        6.476      128.123      127.084       41.938        0.171        0.015       55.395        5.191        0.009      330.291       -2.429      866.921
01/22/2014  07:59:00      -47.518      -19.948      -10.173       13.044       12.171        8.504      170.151      148.143       72.325        0.157        0.020       51.535        5.170        0.010      330.321       -2.379      866.917
01/22/2014  08:00:00      -49.791      -14.734       -3.240        9.749       11.682        7.474       95.043      136.462       55.867        0.150        0.014       51.925        5.216        0.010      330.330       -2.367      866.921
01/22/2014  08:01:00      -62.381       -4.206       -3.466       15.002        9.965       10.543      225.067       99.299      111.165        0.218        0.022       62.523        9.882        0.025      330.366       -2.308      866.916
01/22/2014  08:02:00      -63.788      -20.194       -4.642       12.274       10.156        6.938      150.660      103.137       48.138        0.240        0.015       66.909        5.658        0.007      330.397       -2.258      866.915
01/22/2014  08:03:00      -72.722      -17.703       -9.616       14.949       12.434        7.427      223.458      154.608       55.167        0.306        0.022       74.846        4.120        0.003      330.462       -2.150      866.908
01/22/2014  08:04:00      -82.881      -14.443       -8.458       15.857       11.587       10.618      251.451      134.260      112.746        0.382        0.025       84.130        3.848        0.002      330.517       -2.060      866.910
01/22/2014  08:05:00      -73.827       -9.719       -5.022       31.014       15.327       14.076      961.843      234.912      198.132        0.348        0.070       74.464       14.567        0.038      330.477       -2.126      866.915
01/22/2014  08:06:00     -100.624        1.392      -12.778       30.634       25.351       20.502      938.426      642.651      420.312        0.615        0.100      100.634       16.854        0.028      330.542       -2.018      866.924
01/22/2014  08:07:00      -89.651       -9.777       -5.597       33.252       20.640       17.562     1105.670      426.020      308.408        0.500        0.092       90.183       15.966        0.031      330.580       -1.957      866.937
01/22/2014  08:08:00      -46.603       -5.264       -3.249       31.315       26.526       14.783      980.601      703.615      218.545        0.206        0.095       46.899        9.308        0.039      330.643       -1.853      866.940
01/22/2014  08:09:00      -63.425       -8.119       -1.937       30.554       16.847       19.424      933.525      283.828      377.295        0.284        0.080       63.942       19.790        0.096      330.752       -1.675      866.932
01/22/2014  08:10:00      -80.031      -23.857       -6.250       27.265       27.863       17.278      743.362      776.347      298.525        0.442        0.091       83.511       12.187        0.021      330.811       -1.578      866.925
01/22/2014  08:11:00      -72.305      -12.674        0.642       27.538       30.529       19.256      758.321      932.027      370.801        0.372        0.103       73.408       14.294        0.038      330.913       -1.409      866.910
01/22/2014  08:12:00     -107.745       -6.823       -9.137       26.245       19.209       15.911      688.784      368.970      253.152        0.652        0.066      107.960       11.377        0.011      330.769       -1.645      866.902
01/22/2014  08:13:00      -84.153        7.125       -1.175       33.375       22.911       18.506     1113.883      524.910      342.459        0.456        0.099       84.454       19.936        0.056      330.756       -1.668      866.911
01/22/2014  08:14:00      -89.996        3.563       -0.876       34.685       25.938       20.128     1203.039      672.762      405.151        0.520        0.114       90.067       19.903        0.049      330.773       -1.640      866.917
01/22/2014  08:15:00     -102.349      -10.390       -3.226       36.096       31.370       20.762     1302.888      984.099      431.050        0.666        0.136      102.875       19.032        0.034      330.793       -1.607      866.913
01/22/2014  08:16:00     -111.840       -5.770      -10.578       32.466       21.942       19.987     1054.058      481.442      399.488        0.729        0.097      111.989       18.716        0.028      330.830       -1.545      866.907
01/22/2014  08:17:00      -79.058        0.842       -1.917       39.397       25.258       20.774     1552.132      637.950      431.561        0.444        0.131       79.063       19.070        0.058      330.875       -1.472      866.897
01/22/2014  08:18:00      -85.682       13.707       -1.851       35.985       26.527       16.391     1294.901      703.662      268.660        0.490        0.113       86.772       18.434        0.045      330.987       -1.288      866.889
01/22/2014  08:19:00      -98.562       18.025       -9.703       35.566       28.499       18.728     1264.964      812.205      350.730        0.628        0.121      100.197       12.504        0.016      331.018       -1.238      866.887
01/22/2014  08:20:00     -118.542       41.875       -9.168       31.151       17.942       15.272      970.413      321.910      233.227        0.871        0.076      125.720       11.826        0.009      331.057       -1.174      866.894
01/22/2014  08:21:00      -93.673        1.735      -11.518       27.547       25.602       14.706      758.812      655.447      216.259        0.527        0.082       93.689       15.772        0.028      331.094       -1.112      866.908
01/22/2014  08:22:00      -70.270        3.455       -7.427       23.028       24.302       15.939      530.308      590.580      254.054        0.319        0.069       70.354       10.378        0.022      331.124       -1.063      866.913
01/22/2014  08:23:00      -68.416      -18.428       -4.731       22.933       13.248       13.350      525.925      175.513      178.215        0.296        0.044       70.854        9.595        0.018      331.171       -0.985      866.921
01/22/2014  08:24:00      -52.613      -35.568       -0.978       25.913       13.032       13.761      671.472      169.832      189.356        0.253        0.052       63.507        8.602        0.018      331.247       -0.860      866.911
01/22/2014  08:25:00      -62.038      -37.104      -11.356       13.548       19.864        7.676      183.543      394.592       58.914        0.300        0.032       72.287        7.091        0.010      331.299       -0.776      866.888
01/22/2014  08:26:00      -84.273      -31.226      -10.504       18.880       17.534        8.980      356.452      307.450       80.634        0.447        0.037       89.872        5.334        0.004      331.337       -0.713      866.885
01/22/2014  08:27:00      -62.164      -26.231        2.647       42.304       17.325       15.176     1789.603      300.143      230.318        0.344        0.116       67.471       20.777        0.095      331.444       -0.538      866.897
01/22/2014  08:28:00      -48.271       -0.699       -0.550       16.509       20.485       12.886      272.544      419.646      166.044        0.159        0.043       48.277       10.887        0.051      331.443       -0.539      866.896
01/22/2014  08:29:00      -93.866        6.512       -9.806       16.260        8.666        9.730      264.396       75.094       94.672        0.469        0.022       94.091        5.825        0.004      331.368       -0.662      866.888
01/22/2014  08:30:00      -60.515       16.810       -6.420       10.394       10.558       11.011      108.025      111.478      121.232        0.216        0.017       62.806        7.205        0.013      331.467       -0.498      866.872
01/22/2014  08:31:00      -17.291        5.926       16.553       23.156       11.062       18.724      536.179      122.360      350.599        0.081        0.050       18.279       19.300        1.115      332.049        0.459      866.867
01/22/2014  08:32:00      -35.123       -1.216        1.222       18.705       13.478       13.147      349.870      181.664      172.856        0.097        0.035       35.144       13.888        0.156      331.621       -0.246      866.878
01/22/2014  08:33:00      -10.705       -4.320       -1.575       11.566        6.977       11.566      133.783       48.676      133.772        0.023        0.016       11.544        9.989        0.749      331.829        0.096      866.898
01/22/2014  08:34:00      -36.246       -4.152        3.083       21.575       14.163       14.682      465.477      200.586      215.563        0.111        0.044       36.483       15.863        0.189      331.840        0.116      866.930
01/22/2014  08:35:00      -17.940      -17.902       -2.338       10.657        5.381        7.698      113.562       28.954       59.255        0.042        0.010       25.344        5.502        0.047      331.680       -0.147      866.960
01/22/2014  08:36:00      -26.140      -21.365       -1.381       15.319       12.862        8.708      234.678      165.424       75.823        0.081        0.024       33.761        8.284        0.060      331.809        0.064      866.969
01/22/2014  08:37:00      -10.043      -12.692        6.994       11.482       10.312        9.113      131.832      106.337       83.040        0.032        0.016       16.185        6.887        0.181      332.075        0.502      866.978
01/22/2014  08:38:00      -13.110        0.732       11.496       10.299        6.185       11.005      106.077       38.251      121.116        0.028        0.013       13.130        8.912        0.461      332.268        0.820      866.998
01/22/2014  08:39:00       -4.439        7.035       33.020        5.191       10.852        7.670       26.945      117.762       58.830        0.068        0.010        8.319        6.219        0.559      332.776        1.660      867.016
01/22/2014  08:40:00        5.782       31.706       46.555       20.345       20.241       15.511      413.915      409.678      240.577        0.213        0.053       32.229       13.397        0.173      332.295        0.864      867.033
01/22/2014  08:41:00       28.074       51.986       56.083       29.195       26.640       17.243      852.358      709.679      297.305        0.425        0.093       59.082       11.477        0.038      332.098        0.540      867.041
01/22/2014  08:42:00       34.232       75.310       62.775       25.534       32.137       29.540      651.999     1032.773      872.633        0.667        0.128       82.725       22.430        0.074      331.986        0.355      867.040
01/22/2014  08:43:00       16.630       79.717       83.231       29.225       39.591       26.105      854.127     1567.444      681.492        0.833        0.155       81.433       18.709        0.053      332.027        0.422      867.050
01/22/2014  08:44:00       43.356       97.461       92.119       42.869       39.914       18.187     1837.712     1593.162      330.765        1.181        0.188      106.670       13.247        0.015      331.891        0.198      867.069
01/22/2014  08:45:00       34.430       63.683       80.945       32.860       31.405       17.817     1079.807      986.292      317.458        0.709        0.119       72.394       20.657        0.081      331.982        0.348      867.074
01/22/2014  08:46:00       60.731       96.162       76.222       46.149       44.798       41.263     2129.773     2006.888     1702.648        1.229        0.292      113.734       37.154        0.107      331.890        0.198      867.045
01/22/2014  08:47:00       34.118       42.981       50.835       41.474       53.828       27.470     1720.067     2897.499      754.581        0.548        0.269       54.877       20.774        0.143      331.967        0.324      867.008
01/22/2014  08:48:00       42.778       62.233       77.849       48.275       44.271       33.042     2330.456     1959.897     1091.791        0.857        0.269       75.517       35.769        0.224      332.181        0.677      866.989
01/22/2014  08:49:00       90.349       71.046       42.821       52.026       32.467       40.404     2706.702     1054.105     1632.502        1.022        0.270      114.937       34.659        0.091      331.928        0.260      866.989
01/22/2014  08:50:00       66.464       82.822       58.375       51.493       25.440       38.999     2651.486      647.187     1520.925        0.975        0.241      106.193       33.453        0.099      331.931        0.266      867.005
01/22/2014  08:51:00       78.177       76.081       58.396       45.432       31.300       32.137     2064.047      979.680     1032.768        0.969        0.204      109.087       24.887        0.052      331.975        0.337      867.000
01/22/2014  08:52:00       36.130        5.833       52.591       45.262       58.997       26.345     2048.640     3480.611      694.052        0.516        0.311       36.597       24.890        0.463      332.166        0.651      866.985
01/22/2014  08:53:00       45.356      -40.791       22.296       34.363       49.290       34.598     1180.840     2429.467     1197.022        0.451        0.240       61.001       28.839        0.224      332.305        0.882      866.959
01/22/2014  08:54:00       26.386       68.366       76.006       42.523       39.404       33.196     1808.241     1552.690     1101.948        0.780        0.223       73.281       27.931        0.145      332.210        0.725      866.947
01/22/2014  08:55:00       48.827       74.442       82.301       38.626       39.058       23.783     1491.976     1525.504      565.640        0.914        0.179       89.026       22.678        0.065      332.021        0.414      866.971
01/22/2014  08:56:00       39.853       59.655       62.337       38.155       38.310       21.765     1455.819     1467.694      473.726        0.621        0.170       71.743       18.973        0.070      332.145        0.617      866.993
01/22/2014  08:57:00       51.709       26.276       43.692       45.682       30.113       39.941     2086.856      906.766     1595.296        0.493        0.229       58.002       27.313        0.222      332.310        0.891      866.999
01/22/2014  08:58:00       52.151       53.477       59.810       50.606       47.534       36.539     2560.947     2259.463     1335.084        0.765        0.308       74.696       25.568        0.117      332.240        0.774      866.985
01/22/2014  08:59:00       62.368        9.568       42.501       45.686       44.758       38.919     2087.188     2003.241     1514.655        0.570        0.280       63.097       41.588        0.434      332.206        0.719      866.982
01/22/2014  09:00:00       44.237       53.293       47.098       26.221       43.004       24.318      687.550     1849.372      591.378        0.507        0.156       69.261       26.102        0.142      332.236        0.769      866.977
01/22/2014  09:01:00       47.036       56.750       62.705       34.363       34.187       28.014     1180.791     1168.771      784.759        0.625        0.157       73.709       20.407        0.077      332.198        0.706      866.971
01/22/2014  09:02:00       68.633       65.905       52.572       30.554       21.132       28.892      933.520      446.574      834.722        0.702        0.111       95.152       18.383        0.037      332.209        0.722      866.970
01/22/2014  09:03:00       53.691       84.041       73.357       49.689       39.840       34.346     2468.966     1587.249     1179.654        1.028        0.262       99.727       24.839        0.062      332.383        1.009      866.956
01/22/2014  09:04:00       66.457       50.058       32.562       51.230       41.889       44.625     2624.500     1754.675     1991.380        0.718        0.319       83.201       42.936        0.266      332.317        0.900      866.942
01/22/2014  09:05:00       27.738       55.832       73.383       33.270       31.136       26.622     1106.889      969.464      708.741        0.603        0.139       62.343       21.005        0.114      332.390        1.022      866.929
01/22/2014  09:06:00       49.541       26.448       38.975       42.742       35.795       27.970     1826.916     1281.269      782.331        0.428        0.195       56.159       30.117        0.288      332.578        1.332      866.925
01/22/2014  09:07:00       14.764       27.085       44.021       37.627       36.099       24.353     1415.764     1303.104      593.047        0.310        0.166       30.847       18.643        0.365      332.752        1.619      866.931
01/22/2014  09:08:00       41.577       57.669       64.270       50.992       40.685       35.477     2600.211     1655.237     1258.614        0.735        0.276       71.094       24.855        0.122      332.530        1.252      866.940
01/22/2014  09:09:00       19.400       58.632       71.861       39.958       41.152       26.590     1596.625     1693.512      707.019        0.649        0.200       61.758       15.384        0.062      332.646        1.444      866.963
01/22/2014  09:10:00       41.656       29.279       29.399       48.590       44.702       40.540     2360.970     1998.225     1643.469        0.473        0.300       50.916       32.352        0.404      332.689        1.516      866.978
01/22/2014  09:11:00       89.271       72.090       23.330       51.732       42.258       50.919     2676.241     1785.719     2592.760        1.038        0.353      114.744       36.920        0.104      332.496        1.196      866.970
01/22/2014  09:12:00       32.153       86.637       86.324       49.206       53.101       29.563     2421.233     2819.719      873.947        1.105        0.306       92.410       17.180        0.035      332.934        1.919      866.963
01/22/2014  09:13:00       33.924       95.942       92.273       45.252       45.516       32.327     2047.712     2071.688     1045.023        1.202        0.258      101.763       16.970        0.028      332.707        1.545      866.976
01/22/2014  09:14:00      100.889       87.130       62.231       39.646       36.774       33.971     1571.767     1352.306     1154.038        1.286        0.204      133.304       22.574        0.029      332.561        1.302      866.977
01/22/2014  09:15:00       65.079      110.102       79.150       48.626       41.528       36.563     2364.479     1724.566     1336.831        1.402        0.271      127.897       32.100        0.063      332.554        1.291      866.968
01/22/2014  09:16:00       86.830       71.035       38.195       55.955       31.604       28.489     3130.931      998.823      811.623        0.949        0.247      112.185       19.870        0.031      332.350        0.955      866.953
01/22/2014  09:17:00       22.300      106.290      108.598       44.492       49.657       31.159     1979.569     2465.795      970.893        1.450        0.271      108.605       33.774        0.097      332.593        1.356      866.946
01/22/2014  09:18:00       96.138       96.781       65.992       44.512       40.365       47.022     1981.342     1629.346     2211.024        1.439        0.291      136.415       42.594        0.097      332.399        1.036      866.937
01/22/2014  09:19:00       74.036       88.956       60.144       55.571       39.002       45.679     3088.118     1521.127     2086.613        1.185        0.335      115.734       31.724        0.075      332.443        1.108      866.917
01/22/2014  09:20:00       26.921       49.789       70.899       35.869       54.146       31.236     1286.614     2931.834      975.694        0.671        0.260       56.601       27.691        0.239      332.692        1.521      866.902
01/22/2014  09:21:00       13.023       54.626       63.449       26.169       39.841       29.754      684.795     1587.310      885.283        0.517        0.158       56.157       27.684        0.243      332.796        1.692      866.884
01/22/2014  09:22:00       40.945       61.305       75.130       42.374       38.384       29.622     1795.584     1473.342      877.461        0.761        0.207       73.721       22.295        0.091      332.909        1.879      866.863
01/22/2014  09:23:00       54.771       65.288       49.990       45.634       37.915       38.600     2082.481     1437.560     1489.990        0.738        0.251       85.220       30.142        0.125      332.643        1.438      866.840
01/22/2014  09:24:00       31.364       41.641       65.800       42.317       54.943       30.006     1790.771     3018.732      900.375        0.638        0.285       52.131       24.601        0.223      332.971        1.981      866.853
01/22/2014  09:25:00       74.875       89.245       60.342       38.147       31.673       29.181     1455.217     1003.189      851.507        1.026        0.165      116.495       14.522        0.016      332.711        1.551      866.874
01/22/2014  09:26:00       86.601       65.854       15.902       41.174       37.238       40.526     1695.265     1386.690     1642.345        0.841        0.236      108.795       26.738        0.060      332.840        1.764      866.893
01/22/2014  09:27:00       69.000       59.978       12.252       47.386       35.908       38.244     2245.427     1289.401     1462.636        0.675        0.250       91.425       29.120        0.101      332.926        1.907      866.895
01/22/2014  09:28:00        6.269       41.573       66.073       32.241       33.395       25.742     1039.489     1115.241      662.646        0.447        0.141       42.044       15.766        0.141      333.294        2.514      866.893
01/22/2014  09:29:00       40.179       66.082       73.571       34.237       59.511       43.967     1172.204     3541.522     1933.057        0.902        0.332       77.337       46.126        0.356      332.863        1.802      866.894
01/22/2014  09:30:00       63.301       60.286       52.293       48.492       47.089       39.780     2351.518     2217.392     1582.471        0.826        0.308       87.415       33.136        0.144      332.853        1.786      866.883
01/22/2014  09:31:00       37.365       69.444       84.987       34.527       35.759       20.390     1192.110     1278.716      415.767        0.816        0.144       78.858       18.483        0.055      332.865        1.807      866.872
01/22/2014  09:32:00       73.793       90.483       66.259       43.337       30.681       36.208     1878.107      941.306     1311.005        1.108        0.207      116.759       24.331        0.043      332.797        1.693      866.855
01/22/2014  09:33:00       98.231       74.867       26.658       25.128       20.681       28.110      631.438      427.716      790.162        0.891        0.092      123.509       15.093        0.015      332.536        1.262      866.834
01/22/2014  09:34:00       67.172       62.050       35.406       45.898       42.699       31.877     2106.586     1823.223     1016.113        0.728        0.247       91.445       23.335        0.065      332.879        1.828      866.812
01/22/2014  09:35:00       65.602       65.157       57.069       56.594       45.968       43.319     3202.866     2113.050     1876.504        0.950        0.360       92.461       35.409        0.147      333.023        2.068      866.795
01/22/2014  09:36:00      121.831       96.351       61.135       33.036       36.331       43.186     1091.391     1319.925     1865.011        1.607        0.214      155.326       21.291        0.019      332.805        1.706      866.799
01/22/2014  09:37:00       49.006       63.951       19.873       46.833       35.890       36.347     2193.293     1288.071     1321.126        0.584        0.240       80.568       21.192        0.069      333.310        2.542      866.808
01/22/2014  09:38:00       32.068       35.460       34.876       36.891       33.267       28.605     1360.971     1106.673      818.259        0.339        0.164       47.810        9.060        0.036      333.281        2.493      866.802
01/22/2014  09:39:00       28.022      -23.342       31.898       47.036       82.610       36.698     2212.383     6824.339     1346.708        0.636        0.519       36.471       49.420        1.836      333.295        2.517      866.776
01/22/2014  09:40:00       70.821       -0.721       28.075       60.991       68.695       42.245     3719.875     4719.032     1784.607        0.801        0.511       70.825       33.862        0.229      332.972        1.982      866.755
01/22/2014  09:41:00       25.007       70.493       80.024       44.728       44.837       35.897     2000.627     2010.370     1288.600        0.865        0.265       74.797       31.170        0.174      333.183        2.332      866.736
01/22/2014  09:42:00       50.969       56.442       57.395       42.966       41.437       28.447     1846.035     1717.063      809.256        0.672        0.219       76.050       21.733        0.082      333.200        2.359      866.732
01/22/2014  09:43:00       38.202       41.547       49.032       36.340       46.362       27.670     1320.596     2149.395      765.608        0.491        0.212       56.441       27.326        0.234      333.393        2.678      866.732
01/22/2014  09:44:00       25.251       28.406       70.919       54.333       53.276       29.258     2952.052     2838.299      856.039        0.656        0.332       38.006       22.676        0.356      333.342        2.594      866.732
01/22/2014  09:45:00       18.418       67.566       81.421       38.332       28.623       19.874     1469.342      819.295      394.994        0.711        0.134       70.032       14.382        0.042      333.136        2.255      866.737
01/22/2014  09:46:00       41.753       83.540       67.993       40.567       35.226       35.107     1645.684     1240.863     1232.491        0.873        0.206       93.394       28.236        0.091      332.972        1.983      866.731
01/22/2014  09:47:00       28.953       68.949       72.606       39.804       42.881       35.035     1584.382     1838.762     1227.447        0.776        0.233       74.781       30.285        0.164      333.337        2.586      866.730
01/22/2014  09:48:00       23.419       91.596       89.869       35.240       36.149       26.474     1241.862     1306.750      700.850        1.013        0.162       94.543       21.696        0.053      333.261        2.460      866.721
01/22/2014  09:49:00      108.053       98.719       54.998       33.292       40.184       38.597     1108.381     1614.727     1489.758        1.433        0.211      146.359       20.366        0.019      332.869        1.812      866.711
01/22/2014  09:50:00       94.610       79.724       36.798       49.351       45.189       29.813     2435.531     2042.021      888.788        1.101        0.268      123.721       14.801        0.014      333.155        2.284      866.704
01/22/2014  09:51:00       15.736        7.718       34.283       36.605       32.860       23.037     1339.901     1079.796      530.703        0.222        0.148       17.527       11.521        0.432      333.748        3.266      866.700
01/22/2014  09:52:00       31.035       63.637       44.914       44.127       40.120       36.814     1947.155     1609.604     1355.235        0.597        0.246       70.801       17.345        0.060      333.609        3.035      866.705
01/22/2014  09:53:00       18.146       65.894       78.028       56.289       46.285       36.956     3168.431     2142.306     1365.746        0.872        0.334       68.347       27.010        0.156      333.670        3.137      866.709
01/22/2014  09:54:00       79.638       51.015        3.445       59.426       41.286       31.570     3531.461     1704.533      996.645        0.759        0.312       94.577       26.834        0.081      333.324        2.564      866.707
01/22/2014  09:55:00       34.060       71.023       77.875       69.364       51.828       42.143     4811.398     2686.134     1776.041        1.077        0.464       78.767       34.655        0.194      333.570        2.973      866.697
01/22/2014  09:56:00      137.223       94.767       37.989       47.550       42.113       45.176     2260.965     1773.533     2040.844        1.766        0.304      166.766       25.563        0.023      333.141        2.260      866.677
01/22/2014  09:57:00      112.620       62.381       38.418       31.731       25.264       31.345     1006.886      638.263      982.486        1.034        0.131      128.742       14.391        0.012      333.357        2.619      866.668
01/22/2014  09:58:00       61.645       69.527       31.124       58.660       45.299       58.348     3441.031     2052.038     3404.466        0.925        0.445       92.920       41.160        0.196      333.688        3.165      866.661
01/22/2014  09:59:00       43.870       88.446       81.149       50.948       42.901       42.822     2595.701     1840.488     1833.707        1.130        0.313       98.728       22.644        0.053      333.723        3.225      866.656
01/22/2014  10:00:00       78.908       52.879       21.769       62.397       51.688       36.018     3893.410     2671.678     1297.293        0.868        0.393       94.988       21.396        0.051      333.933        3.573      866.641
01/22/2014  10:01:00      143.226       98.513       30.024       43.774       40.605       45.703     1916.152     1648.730     2088.790        1.839        0.283      173.835       25.769        0.022      333.525        2.896      866.635
01/22/2014  10:02:00       95.480       66.435        6.009       37.615       32.526       38.078     1414.852     1057.949     1449.927        0.874        0.196      116.318       20.508        0.031      333.375        2.648      866.612
01/22/2014  10:03:00       66.612       67.132       32.053       35.547       32.382       37.130     1263.603     1048.625     1378.639        0.683        0.185       94.572       22.051        0.054      333.638        3.084      866.596
01/22/2014  10:04:00       78.595       79.831       71.345       61.143       48.206       51.490     3738.432     2323.780     2651.201        1.318        0.436      112.028       45.564        0.165      333.459        2.789      866.572
01/22/2014  10:05:00       30.519       37.565       64.685       55.880       37.663       44.175     3122.590     1418.484     1951.427        0.651        0.325       48.400       45.034        0.866      333.896        3.513      866.552
01/22/2014  10:06:00       44.482      -30.419       31.500       41.462       91.168       48.787     1719.124     8311.568     2380.179        0.815        0.621       53.888       60.607        1.265      333.879        3.484      866.551
01/22/2014  10:07:00       17.185       47.902       63.192       29.790       49.891       34.993      887.464     2489.080     1224.537        0.559        0.230       50.892       25.740        0.256      333.958        3.614      866.542
01/22/2014  10:08:00       12.990       60.438       80.956       33.086       38.456       26.220     1094.681     1478.837      687.489        0.682        0.163       61.818       22.599        0.134      334.211        4.035      866.543
01/22/2014  10:09:00       20.540       66.380       95.575       39.655       38.850       27.486     1572.532     1509.328      755.501        0.890        0.192       69.485       28.047        0.163      333.710        3.204      866.544
01/22/2014  10:10:00       38.399       45.476       58.558       40.834       52.835       25.527     1667.437     2791.490      651.633        0.604        0.256       59.519       23.955        0.162      333.863        3.456      866.525
01/22/2014  10:11:00       17.211       -2.202       34.915       51.680       38.475       31.104     2670.854     1480.306      967.479        0.332        0.256       17.351       24.790        2.041      334.219        4.048      866.487
01/22/2014  10:12:00       30.587        6.261       45.187       36.299       51.099       30.270     1317.618     2611.060      916.265        0.393        0.242       31.221       24.358        0.609      334.328        4.230      866.470
01/22/2014  10:13:00       31.634       11.231       31.457       35.692       37.409       30.141     1273.911     1399.421      908.493        0.285        0.179       33.568       20.181        0.361      334.455        4.438      866.448
01/22/2014  10:14:00       14.700       37.348       55.096       24.979       39.276       34.253      623.974     1542.606     1173.246        0.399        0.167       40.137       29.815        0.552      334.024        3.725      866.432
01/22/2014  10:15:00       48.318       46.402       16.809       23.831       27.381       27.919      567.896      749.696      779.491        0.343        0.105       66.991       16.042        0.057      333.882        3.489      866.420
01/22/2014  10:16:00       48.075       59.305       30.193       46.734       34.768       29.554     2184.092     1208.802      873.421        0.550        0.213       76.343       27.261        0.128      334.123        3.889      866.402
01/22/2014  10:17:00       44.342       35.886       23.099       52.349       33.452       31.940     2740.385     1119.041     1020.172        0.433        0.244       57.044       29.105        0.260      334.454        4.438      866.385
01/22/2014  10:18:00       28.390       10.033       52.900       55.998       44.206       42.426     3135.820     1954.189     1799.930        0.530        0.344       30.111       33.836        1.263      334.677        4.807      866.380
01/22/2014  10:19:00       72.871      -90.044        2.551       39.068       55.452       38.422     1526.292     3074.961     1476.241        0.975        0.304      115.836       35.434        0.094      334.244        4.089      866.372
01/22/2014  10:20:00       21.472       19.903       72.491       35.631       52.054       27.545     1269.585     2709.574      758.747        0.542        0.237       29.278       24.796        0.717      334.677        4.808      866.363
01/22/2014  10:21:00       40.064      -36.382       24.747       59.595       98.091       53.154     3551.617     9621.881     2825.366        0.977        0.800       54.118       66.984        1.532      334.248        4.095      866.369
01/22/2014  10:22:00      -10.598       19.440       62.412       28.966       47.729       43.016      839.053     2278.027     1850.374        0.468        0.248       22.141       36.064        2.653      334.604        4.686      866.356
01/22/2014  10:23:00       18.567       50.653       81.203       37.887       56.827       25.882     1435.457     3229.332      669.857        0.742        0.267       53.949       25.774        0.228      334.527        4.559      866.358
01/22/2014  10:24:00       51.494       29.137       43.592       48.050       71.362       33.739     2308.819     5092.498     1138.330        0.697        0.427       59.166       35.330        0.357      334.300        4.182      866.357
01/22/2014  10:25:00       61.166      -36.626        4.674       53.195       64.274       46.982     2829.736     4131.137     2207.261        0.713        0.458       71.293       51.044        0.513      334.378        4.311      866.365
01/22/2014  10:26:00       47.126       40.014       49.022       46.701       31.828       37.042     2181.029     1013.050     1372.074        0.539        0.228       61.822        9.887        0.026      334.491        4.499      866.357
01/22/2014  10:27:00       23.288       70.542       81.990       34.654       40.205       22.813     1200.912     1616.444      520.421        0.779        0.167       74.286       20.246        0.074      334.246        4.092      866.349
01/22/2014  10:28:00       56.708       71.871       53.702       36.309       39.742       42.708     1318.369     1579.453     1823.990        0.799        0.236       91.549       32.036        0.122      334.148        3.930      866.334
01/22/2014  10:29:00       47.349      107.637      113.982       40.580       41.065       21.623     1646.706     1686.303      467.572        1.531        0.190      117.591       20.630        0.031      334.041        3.751      866.320
01/22/2014  10:30:00      117.254       91.551       40.730       56.399       45.124       46.856     3180.798     2036.137     2195.517        1.560        0.371      148.761       28.474        0.037      334.015        3.708      866.287
01/22/2014  10:31:00      137.879       82.006       11.521       44.305       42.197       42.168     1962.920     1780.559     1778.130        1.569        0.276      160.423       17.596        0.012      334.076        3.809      866.281
01/22/2014  10:32:00       31.199       58.748       55.931       48.129       48.429       45.503     2316.415     2345.349     2070.482        0.714        0.337       66.518       43.231        0.422      334.783        4.984      866.280
01/22/2014  10:33:00       47.845       20.422        9.479       33.580       56.007       37.157     1127.635     3136.800     1380.662        0.422        0.282       52.021       17.693        0.116      334.601        4.681      866.269
01/22/2014  10:34:00       88.247       90.810       53.459       66.214       61.421       52.910     4384.347     3772.573     2799.512        1.492        0.548      126.625       44.243        0.122      334.412        4.368      866.252
01/22/2014  10:35:00       45.401       64.508       58.192       72.921       79.184       75.272     5317.404     6270.176     5665.842        1.343        0.863       78.883       65.135        0.682      334.604        4.686      866.223
01/22/2014  10:36:00       91.184      118.626       98.547       74.693       46.612       47.259     5579.081     2172.665     2233.376        2.104        0.499      149.622       49.327        0.109      334.415        4.370      866.200
01/22/2014  10:37:00       46.645       43.287       73.411       47.054       45.310       34.275     2214.049     2052.953     1174.802        0.744        0.272       63.635       30.905        0.236      334.543        4.585      866.195
01/22/2014  10:38:00       97.224       57.492       19.939       34.663       57.784       53.364     1201.539     3339.044     2847.693        1.027        0.369      112.951       34.918        0.096      334.288        4.162      866.184
01/22/2014  10:39:00      101.465       56.540       27.943       63.262       47.444       35.574     4002.078     2250.889     1265.540        1.089        0.376      116.155       20.447        0.031      334.568        4.627      866.183
01/22/2014  10:40:00      134.324       90.106        7.626       51.206       30.130       35.436     2622.041      907.821     1255.728        1.550        0.239      161.747       21.816        0.018      334.250        4.098      866.179
01/22/2014  10:41:00      144.931       94.216       21.859       42.036       43.081       37.678     1766.983     1856.010     1419.615        1.770        0.252      172.863       24.807        0.021      334.349        4.261      866.163
01/22/2014  10:42:00       70.533       93.909       13.677       48.206       33.771       35.040     2323.857     1140.511     1227.780        0.934        0.235      117.447       20.964        0.032      334.770        4.961      866.158
01/22/2014  10:43:00       -3.349       41.436        5.338       34.924       40.349       32.042     1219.667     1628.076     1026.721        0.281        0.194       41.572       28.619        0.474      335.110        5.528      866.144
01/22/2014  10:44:00       25.031       64.847       65.670       32.417       47.293       37.375     1050.838     2236.604     1396.904        0.691        0.234       69.510       31.685        0.208      335.140        5.576      866.140
01/22/2014  10:45:00       85.736       71.877       50.472       50.017       43.525       48.385     2501.669     1894.427     2341.132        1.090        0.337      111.879       32.059        0.082      334.970        5.294      866.142
01/22/2014  10:46:00       68.145      142.683      136.644       67.522       50.105       36.412     4559.223     2510.461     1325.840        2.603        0.420      158.121       35.307        0.050      334.467        4.457      866.136
01/22/2014  10:47:00       59.571      102.346       84.176       56.841       37.676       33.875     3230.905     1419.516     1147.525        1.345        0.290      118.421       23.687        0.040      334.515        4.536      866.143
01/22/2014  10:48:00       47.164       81.239       76.998       49.509       41.947       31.886     2451.108     1759.544     1016.742        0.999        0.261       93.937       22.967        0.060      334.695        4.837      866.119
01/22/2014  10:49:00       11.313       44.828       66.791       36.800       49.369       47.015     1354.247     2437.328     2210.429        0.630        0.300       46.234       30.431        0.433      334.995        5.337      866.093
01/22/2014  10:50:00       88.387       69.996       44.222       77.782       44.654       48.700     6050.110     1994.003     2371.646        1.254        0.521      112.746       45.123        0.160      334.918        5.206      866.069
01/22/2014  10:51:00      150.548       83.308       39.817       62.539       52.900       49.400     3911.071     2798.423     2440.396        2.017        0.457      172.061       32.370        0.035      334.572        4.632      866.069
01/22/2014  10:52:00       88.098       17.920       15.741       54.520       29.632       34.800     2972.482      878.072     1211.071        0.669        0.253       89.902       25.726        0.082      334.708        4.859      866.071
01/22/2014  10:53:00       29.088       60.610       44.448       38.424       41.997       45.792     1476.434     1763.722     2096.951        0.592        0.267       67.229       30.621        0.207      335.063        5.448      866.042
01/22/2014  10:54:00       55.351       61.881       60.968       53.079       46.969       44.633     2817.343     2206.063     1992.079        0.881        0.351       83.024       32.901        0.157      334.883        5.149      866.034
01/22/2014  10:55:00       54.751       62.824       19.707       42.673       38.663       33.144     1821.027     1494.820     1098.517        0.587        0.221       83.334       19.962        0.057      334.712        4.867      866.009
01/22/2014  10:56:00       31.595       -2.729       28.169       54.227       58.136       37.176     2940.534     3379.798     1382.082        0.475        0.385       31.712       30.881        0.948      335.237        5.739      866.011
01/22/2014  10:57:00       59.025       25.846       64.022       41.371       51.180       38.202     1711.523     2619.380     1459.385        0.702        0.290       64.436       34.240        0.282      335.141        5.579      866.013
01/22/2014  10:58:00       52.478      -17.561       17.977       41.686       45.429       31.382     1737.729     2063.822      984.830        0.408        0.239       55.338       28.179        0.259      335.127        5.555      866.012
01/22/2014  10:59:00       30.464      -19.443       34.861       35.271       40.494       32.513     1244.075     1639.752     1057.095        0.323        0.197       36.140       30.000        0.689      335.463        6.114      866.005
01/22/2014  11:00:00       34.068       -7.876       29.120       24.768       32.850       36.569      613.445     1079.099     1337.298        0.255        0.151       34.967       29.067        0.691      335.287        5.823      865.991
01/22/2014  11:01:00        5.332      -17.327        4.805       24.347       34.357       29.615      592.758     1180.430      877.069        0.150        0.133       18.129       27.645        2.325      335.351        5.927      865.966
01/22/2014  11:02:00       36.714       51.631       15.614       50.245       53.013       37.596     2524.516     2810.414     1413.489        0.550        0.337       63.353       25.078        0.157      335.577        6.305      865.940
01/22/2014  11:03:00       86.569       65.254       32.328       45.148       35.305       39.464     2038.359     1246.413     1557.400        0.882        0.242      108.408       30.773        0.081      335.446        6.085      865.922
01/22/2014  11:04:00       10.951        6.148       26.808       33.545       39.014       19.964     1125.253     1522.069      398.542        0.196        0.152       12.558       12.393        0.974      335.883        6.814      865.887
01/22/2014  11:05:00       32.192       21.898       44.575       46.501       37.881       33.227     2162.309     1434.937     1104.051        0.410        0.235       38.934       30.735        0.623      335.583        6.314      865.869
01/22/2014  11:06:00       20.132      -49.993       17.564       25.850       35.117       18.108      668.221     1233.221      327.905        0.272        0.111       53.894       14.440        0.072      335.259        5.774      865.840
01/22/2014  11:07:00        6.439       19.073       25.099       32.561       38.812       22.051     1060.245     1506.371      486.227        0.204        0.153       20.131       19.757        0.963      335.634        6.399      865.823
01/22/2014  11:08:00       85.729       59.549       42.019       44.217       37.165       41.975     1955.169     1381.253     1761.899        0.888        0.255      104.382       27.008        0.067      335.199        5.674      865.808
01/22/2014  11:09:00       45.707       68.564       -1.815       20.762       32.264       25.254      431.043     1040.986      637.758        0.445        0.105       82.402       18.230        0.049      335.114        5.534      865.795
01/22/2014  11:10:00      -22.500        0.398       21.151       27.495       37.697       24.054      755.995     1421.096      578.610        0.185        0.138       22.503       14.641        0.423      335.740        6.576      865.781
01/22/2014  11:11:00       38.503      -35.704       34.656       52.555       59.868       50.155     2762.056     3584.153     2515.491        0.641        0.443       52.510       44.214        0.709      335.760        6.608      865.758
01/22/2014  11:12:00       58.735      -88.457       -7.164       71.522       66.193       53.112     5115.463     4381.451     2820.846        1.182        0.616      106.181       47.892        0.203      335.512        6.197      865.741
01/22/2014  11:13:00       13.870      -76.530       18.591       32.179       40.529       36.425     1035.468     1642.580     1326.774        0.520        0.200       77.777       22.652        0.085      335.659        6.441      865.724
01/22/2014  11:14:00       30.244      -13.057       23.969       42.114       57.875       43.996     1773.581     3349.503     1935.629        0.436        0.353       32.942       30.670        0.867      335.717        6.538      865.712
01/22/2014  11:15:00       45.718       17.984       49.122       35.987       53.881       43.016     1295.049     2903.159     1850.383        0.544        0.302       49.128       45.119        0.843      335.656        6.437      865.689
01/22/2014  11:16:00       61.902       37.873       58.306       24.527       20.776       20.748      601.563      431.633      430.496        0.506        0.073       72.569        9.203        0.016      335.657        6.436      865.667
01/22/2014  11:17:00       38.152       40.575       32.464       33.306       23.260       27.710     1109.308      541.031      767.844        0.329        0.121       55.694       12.195        0.048      335.584        6.315      865.635
01/22/2014  11:18:00       39.712      -33.478       18.292       46.644       57.132       29.540     2175.694     3264.106      872.615        0.467        0.316       51.940       32.980        0.403      335.679        6.473      865.637
01/22/2014  11:19:00       50.230       28.487       27.134       42.245       31.475       29.820     1784.665      990.659      889.255        0.387        0.183       57.745       19.196        0.111      335.753        6.596      865.632
01/22/2014  11:20:00       54.981       37.143        4.836       27.944       22.270       29.230      780.847      495.973      854.375        0.328        0.107       66.351       17.220        0.067      335.479        6.139      865.623
01/22/2014  11:21:00       33.102       36.604       36.052       31.759       24.991       21.848     1008.637      624.544      477.316        0.292        0.106       49.351       13.199        0.072      335.870        6.792      865.589
01/22/2014  11:22:00       15.888       44.487       13.120       29.337       35.928       24.138      860.636     1290.829      582.634        0.257        0.137       47.238       13.023        0.076      336.052        7.095      865.550
01/22/2014  11:23:00        7.167        3.902       26.056       23.241       17.868       13.958      540.166      319.270      194.821        0.090        0.053        8.160       11.002        1.818      336.683        8.149      865.505
01/22/2014  11:24:00       -2.164      -44.393       40.987       35.495       52.097       36.286     1259.905     2714.115     1316.661        0.447        0.265       44.446       32.022        0.519      336.488        7.825      865.464
01/22/2014  11:25:00      -22.026      -13.431       26.545       35.320       67.130       36.713     1247.529     4506.405     1347.865        0.423        0.355       25.798       40.294        2.440      336.146        7.251      865.430
01/22/2014  11:26:00       35.604       60.098       81.543       54.564       44.168       24.365     2977.195     1950.804      593.675        0.852        0.276       69.853       21.926        0.099      336.077        7.137      865.411
01/22/2014  11:27:00      111.679       86.006       41.639       42.329       43.803       43.949     1791.771     1918.660     1931.499        1.362        0.282      140.959       34.624        0.060      335.463        6.112      865.411
01/22/2014  11:28:00       68.792       79.692       35.462       34.864       28.133       47.579     1215.508      791.441     2263.799        0.830        0.214      105.277       21.318        0.041      335.564        6.282      865.394
01/22/2014  11:29:00      106.973       69.466       17.780       58.290       40.201       33.328     3397.699     1616.160     1110.730        1.135        0.306      127.549       29.550        0.054      335.534        6.231      865.385
01/22/2014  11:30:00       98.890       53.583       16.652       35.806       36.674       27.524     1282.069     1344.985      757.545        0.816        0.169      112.473       16.859        0.022      335.691        6.494      865.349
01/22/2014  11:31:00      106.353       29.852       22.354       59.154       42.645       43.690     3499.171     1818.561     1908.796        0.996        0.361      110.463       28.008        0.064      336.028        7.055      865.308
01/22/2014  11:32:00       61.878       79.233       94.190       68.610       60.086       45.736     4707.376     3610.275     2091.787        1.469        0.520      100.532       38.015        0.143      336.170        7.293      865.268
01/22/2014  11:33:00       84.042       81.926       58.045       57.249       45.449       51.229     3277.479     2065.636     2624.439        1.255        0.398      117.366       41.464        0.125      335.887        6.819      865.251
01/22/2014  11:34:00       10.891       39.240       59.897       32.964       49.633       32.696     1086.653     2463.419     1069.023        0.493        0.231       40.723       27.276        0.449      336.474        7.801      865.234
01/22/2014  11:35:00      114.852       99.248       25.886       49.480       40.111       43.718     2448.223     1608.884     1911.246        1.484        0.298      151.793       26.627        0.031      336.000        7.008      865.223
01/22/2014  11:36:00       65.682       62.994       32.013       57.706       31.509       38.578     3329.929      992.839     1488.261        0.756        0.291       91.007       35.263        0.150      336.304        7.516      865.212
01/22/2014  11:37:00       84.360       76.998        0.413       48.963       45.036       41.887     2397.409     2028.202     1754.497        0.961        0.309      114.216       27.756        0.059      336.277        7.471      865.189
01/22/2014  11:38:00       54.919       69.794        2.820       59.588       45.663       33.379     3550.728     2085.089     1114.128        0.732        0.337       88.810       17.921        0.041      336.325        7.551      865.163
01/22/2014  11:39:00       58.089      -10.791       -0.468       45.536       54.998       27.259     2073.547     3024.818      743.071        0.467        0.292       59.083       26.084        0.195      336.116        7.201      865.146
01/22/2014  11:40:00      -13.308       33.044       45.542       27.770       29.034       31.905      771.193      842.973     1017.954        0.299        0.132       35.623       23.825        0.447      336.315        7.534      865.126
01/22/2014  11:41:00       29.422       48.068       71.628       36.450       38.002       23.879     1328.627     1444.151      570.189        0.582        0.167       56.358       22.963        0.166      336.510        7.861      865.110
01/22/2014  11:42:00       23.505       42.554       68.643       23.120       39.973       21.786      534.519     1597.810      474.613        0.484        0.130       48.614       23.439        0.232      336.541        7.912      865.099
01/22/2014  11:43:00       60.009       53.806        8.549       26.579       20.941       36.512      706.448      438.540     1333.156        0.452        0.124       80.599       14.694        0.033      336.086        7.152      865.084
01/22/2014  11:44:00       88.626       27.256        7.457       53.394       37.912       31.289     2850.960     1437.312      979.031        0.696        0.263       92.723       15.274        0.027      336.135        7.233      865.057
01/22/2014  11:45:00       16.864       49.807       63.592       44.070       42.374       36.743     1942.149     1795.579     1350.054        0.595        0.254       52.584       30.873        0.345      336.651        8.096      865.032
01/22/2014  11:46:00       20.598       45.849       65.998       38.121       36.455       28.825     1453.199     1328.954      830.890        0.525        0.181       50.263       24.930        0.246      336.690        8.161      864.996
01/22/2014  11:47:00       -2.350       54.243       83.802       18.467       34.880       23.912      341.012     1216.610      571.786        0.605        0.106       54.294       13.079        0.058      336.892        8.498      864.967
01/22/2014  11:48:00       59.149       52.961       41.886       72.941       42.541       40.797     5320.372     1809.728     1664.430        0.842        0.440       79.394       40.314        0.258      336.755        8.270      864.939
01/22/2014  11:49:00       60.105       70.167       15.525       51.652       45.631       40.841     2667.938     2082.160     1667.987        0.760        0.321       92.390       30.446        0.109      336.687        8.156      864.915
01/22/2014  11:50:00       74.335       77.779        4.202       44.051       38.473       32.944     1940.466     1480.143     1085.314        0.805        0.225      107.588       23.354        0.047      336.503        7.849      864.896
01/22/2014  11:51:00       66.992       80.933       11.603       42.770       41.942       30.791     1829.268     1759.098      948.072        0.785        0.227      105.062       21.729        0.043      336.482        7.813      864.896
01/22/2014  11:52:00       93.687       63.198       39.399       35.342       38.106       48.491     1249.047     1452.101     2351.385        0.969        0.253      113.010       30.244        0.072      336.343        7.578      864.900
01/22/2014  11:53:00       51.110       36.743       -7.080       35.395       23.290       22.141     1252.791      542.432      490.241        0.315        0.114       62.946       13.276        0.044      336.420        7.709      864.893
01/22/2014  11:54:00       60.768       56.709       13.025       35.256       20.933       25.128     1242.966      438.175      631.404        0.469        0.116       83.118       17.293        0.043      336.541        7.912      864.885
01/22/2014  11:55:00       63.854       61.975       -1.757       27.191       20.102       24.698      739.346      404.079      610.012        0.484        0.088       88.984       19.865        0.050      336.507        7.855      864.867
01/22/2014  11:56:00       66.606       90.889       -5.146       30.928       23.698       29.793      956.543      561.580      887.623        0.756        0.120      112.682       19.383        0.030      336.562        7.948      864.854
01/22/2014  11:57:00       70.034       67.643       22.866       60.520       42.883       42.620     3662.680     1838.969     1816.495        0.866        0.366       97.367       25.021        0.066      336.984        8.653      864.833
01/22/2014  11:58:00       45.849       61.841       14.075       33.289       48.316       42.269     1108.134     2334.473     1786.683        0.568        0.261       76.984       38.646        0.252      336.849        8.428      864.813
01/22/2014  11:59:00       -0.369       67.779        2.550       20.077       50.879       28.002      403.090     2588.695      784.094        0.419        0.189       67.780       25.060        0.137      336.808        8.359      864.782
01/22/2014  12:00:00       17.117       65.615       28.503       36.286       38.630       38.717     1316.704     1492.303     1499.007        0.486        0.215       67.811       19.987        0.087      337.131        8.898      864.745
01/22/2014  12:01:00       50.359       79.089       63.090       50.960       43.041       37.161     2596.943     1852.566     1380.972        0.930        0.292       93.761       25.977        0.077      336.871        8.464      864.707
01/22/2014  12:02:00       58.089       45.550       34.745       39.798       38.559       26.851     1583.908     1486.785      720.980        0.522        0.190       73.818       25.536        0.120      336.710        8.195      864.688
01/22/2014  12:03:00       51.468       47.576       49.028       45.435       29.500       37.455     2064.377      870.222     1402.905        0.583        0.217       70.088       25.694        0.134      336.908        8.525      864.672
01/22/2014  12:04:00       -5.318       40.329       60.579       32.099       39.352       31.454     1030.345     1548.562      989.376        0.445        0.178       40.678       27.791        0.467      337.330        9.231      864.668
01/22/2014  12:05:00       28.370       94.294       15.898       38.793       45.524       38.842     1504.916     2072.459     1508.731        0.752        0.254       98.469       35.200        0.128      337.124        8.886      864.660
01/22/2014  12:06:00       76.519      108.824       -6.657       38.791       34.252       42.064     1504.723     1173.181     1769.416        1.109        0.222      133.033       23.518        0.031      336.795        8.336      864.654
01/22/2014  12:07:00       23.141       15.654       37.251       38.580       37.012       40.360     1488.452     1369.854     1628.965        0.333        0.224       27.938       31.857        1.300      337.244        9.087      864.636
01/22/2014  12:08:00       56.159       27.316       14.478       24.084       25.064       34.690      580.023      628.203     1203.371        0.326        0.121       62.450       23.404        0.140      336.751        8.265      864.616
01/22/2014  12:09:00       37.493      -22.361       18.107       33.515       52.784       25.805     1123.265     2786.131      665.893        0.340        0.229       43.655       23.311        0.285      337.141        8.916      864.575
01/22/2014  12:10:00       74.690       74.563       65.868       65.302       47.275       34.306     4264.412     2234.904     1176.907        1.158        0.384      105.538       29.134        0.076      337.239        9.080      864.555
01/22/2014  12:11:00       80.107       73.876       46.460       41.085       35.989       28.793     1687.947     1295.219      829.045        0.892        0.191      108.971       18.454        0.029      337.002        8.683      864.533
01/22/2014  12:12:00       33.740       33.828       40.525       66.322       56.871       38.933     4398.626     3234.283     1515.807        0.654        0.457       47.778       24.405        0.261      337.251        9.100      864.521
01/22/2014  12:13:00        3.918      -32.346        3.503       62.740       29.540       24.268     3936.349      872.597      588.932        0.323        0.270       32.583       25.754        0.625      337.393        9.337      864.509
01/22/2014  12:14:00       27.582       37.309       64.828       42.868       53.486       44.339     1837.690     2860.753     1965.940        0.651        0.333       46.398       43.612        0.884      337.586        9.660      864.506
01/22/2014  12:15:00       80.710       65.849       59.654       64.972       49.219       51.341     4221.360     2422.474     2635.919        1.184        0.464      104.164       48.889        0.220      337.268        9.129      864.472
01/22/2014  12:16:00       54.860       48.991       42.331       47.138       43.770       38.132     2221.965     1915.841     1454.056        0.640        0.280       73.551       22.385        0.093      337.477        9.478      864.433
01/22/2014  12:17:00       28.734      -41.826        4.551       27.660       69.782       39.928      765.100     4869.487     1594.232        0.491        0.361       50.745       24.878        0.240      337.484        9.488      864.389
01/22/2014  12:18:00       -5.718       -1.741       25.836       30.359       70.236       36.979      921.690     4933.085     1367.414        0.396        0.361        5.978       20.979       12.317      337.734        9.908      864.336
01/22/2014  12:19:00       45.991      -50.327       13.695       60.275       73.063       49.142     3633.029     5338.192     2414.972        0.811        0.569       68.176       47.925        0.494      337.609        9.698      864.303
01/22/2014  12:20:00       32.234      -25.935       39.916       56.546       78.515       57.965     3197.464     6164.650     3359.968        0.801        0.636       41.372       54.401        1.729      337.527        9.561      864.259
01/22/2014  12:21:00       25.764      -46.346       30.088       48.197       68.650       44.775     2322.959     4712.870     2004.814        0.638        0.452       53.026       34.374        0.420      337.455        9.439      864.249
01/22/2014  12:22:00       14.117       -4.901       32.611       45.313       58.742       40.064     2053.290     3450.655     1605.150        0.420        0.355       14.944       41.406        7.677      337.572        9.636      864.229
01/22/2014  12:23:00      -27.697      -20.701       29.632       32.170       40.567       24.818     1034.898     1645.715      615.953        0.268        0.165       34.578       15.410        0.199      337.525        9.558      864.222
01/22/2014  12:24:00       11.606      -38.133        1.487       38.300       46.414       29.660     1466.914     2154.221      879.733        0.305        0.225       39.860       29.279        0.540      337.541        9.586      864.213
01/22/2014  12:25:00      -30.652      -15.185       17.367       36.810       33.375       27.063     1355.008     1113.871      732.412        0.234        0.160       34.207       28.365        0.688      337.900       10.186      864.189
01/22/2014  12:26:00      -67.593      -39.341        8.782       54.753       39.166       31.309     2997.852     1533.959      980.230        0.585        0.276       78.208       29.698        0.144      337.449        9.431      864.187
01/22/2014  12:27:00      -40.937      -38.394        5.400       55.545       45.197       26.879     3085.230     2042.773      722.503        0.451        0.293       56.124       25.058        0.199      337.450        9.433      864.170
01/22/2014  12:28:00      -25.357      -41.059       10.213       26.344       23.318       17.964      694.011      543.750      322.693        0.200        0.078       48.258       11.068        0.053      337.430        9.397      864.165
01/22/2014  12:29:00       -1.695      -40.005       18.340       31.851       52.248       26.014     1014.488     2729.824      676.750        0.318        0.221       40.041       24.454        0.373      337.753        9.940      864.157
01/22/2014  12:30:00      -31.073      -27.368       22.343       30.055       44.472       27.538      903.288     1977.746      758.351        0.293        0.182       41.407       14.941        0.130      337.728        9.898      864.128
01/22/2014  12:31:00      -32.237        4.360       13.525       15.399       19.488       18.677      237.143      379.786      348.847        0.110        0.048       32.530       15.064        0.214      337.653        9.772      864.109
01/22/2014  12:32:00       32.337      -24.743        5.465       65.939       41.500       23.159     4347.886     1722.221      536.324        0.415        0.330       40.717       31.489        0.598      337.748        9.933      864.087
01/22/2014  12:33:00       78.451       36.141       63.940       54.090      108.515       56.004     2925.758    11775.587     3136.476        1.469        0.892       86.376       64.598        0.559      337.584        9.658      864.044
01/22/2014  12:34:00      132.896       88.108       38.522       66.039       52.738       50.491     4361.123     2781.284     2549.307        1.830        0.485      159.450       29.056        0.033      337.287        9.158      864.011
01/22/2014  12:35:00       45.495       19.676       47.073       54.270       41.514       39.797     2945.258     1723.449     1583.767        0.546        0.313       49.567       39.461        0.634      337.535        9.575      863.969
01/22/2014  12:36:00       24.455       48.216       53.457       55.798       33.329       38.755     3113.372     1110.792     1501.918        0.575        0.286       54.063       27.438        0.258      337.828       10.065      863.945
01/22/2014  12:37:00       31.053       78.903       80.165       50.241       43.906       37.216     2524.191     1927.765     1385.021        0.973        0.292       84.793       36.410        0.184      337.649        9.766      863.936
01/22/2014  12:38:00       34.230       31.718       34.494       34.261       21.381       14.698     1173.784      457.159      216.040        0.261        0.092       46.666       11.284        0.058      337.537        9.578      863.920
01/22/2014  12:39:00       19.658       15.038        6.020       29.501       23.028       15.493      870.281      530.302      240.023        0.114        0.082       24.750       15.368        0.386      337.511        9.535      863.908
01/22/2014  12:40:00       11.992       15.469       36.275       27.411       43.217       26.377      751.383     1867.680      695.762        0.251        0.166       19.573       22.904        1.369      337.841       10.087      863.872
01/22/2014  12:41:00       48.462       -1.998       24.968       31.646       57.715       31.159     1001.485     3331.048      970.869        0.414        0.265       48.503       23.587        0.236      337.827       10.064      863.820
01/22/2014  12:42:00      117.516       64.008       18.892       49.707       46.172       22.877     2470.778     2131.825      523.360        1.169        0.256      133.817       12.522        0.009      337.750        9.935      863.782
01/22/2014  12:43:00       47.255       73.906       65.881       49.272       44.021       48.632     2427.773     1937.887     2365.068        0.938        0.337       87.722       39.243        0.200      338.062       10.459      863.726
01/22/2014  12:44:00      100.615      122.267       91.378       63.056       36.860       52.441     3976.065     1358.662     2750.095        2.075        0.404      158.343       47.428        0.090      337.663        9.789      863.697
01/22/2014  12:45:00      125.714       72.073        9.720       37.173       32.202       33.255     1381.830     1037.000     1105.922        1.231        0.176      144.909       17.487        0.015      337.523        9.556      863.677
01/22/2014  12:46:00       38.407       38.074        9.911       31.389       28.912       26.903      985.284      835.899      723.786        0.278        0.127       54.081       11.374        0.044      337.798       10.016      863.650
01/22/2014  12:47:00       10.394       66.898       74.796       32.850       48.017       49.164     1079.110     2305.630     2417.087        0.799        0.290       67.700       36.471        0.290      338.021       10.390      863.630
01/22/2014  12:48:00       97.339      105.135       38.084       43.847       27.239       49.898     1922.547      741.983     2489.783        1.357        0.258      143.277       42.177        0.087      337.548        9.597      863.604
01/22/2014  12:49:00       61.529       63.257       50.169       32.421       32.501       28.601     1051.113     1056.307      818.012        0.661        0.146       88.246       15.662        0.032      337.829       10.068      863.583
01/22/2014  12:50:00       77.957       42.533       39.600       49.261       40.976       47.235     2426.677     1679.033     2231.148        0.789        0.317       88.805       32.218        0.132      337.874       10.144      863.561
01/22/2014  12:51:00       54.659       66.012       28.886       62.925       42.666       38.566     3959.534     1820.398     1487.315        0.772        0.363       85.704       28.762        0.113      338.185       10.665      863.514
01/22/2014  12:52:00       84.805       69.793       27.245       46.437       32.178       33.301     2156.356     1035.410     1108.954        0.855        0.215      109.832       20.834        0.036      337.891       10.173      863.480
01/22/2014  12:53:00       43.744       68.086       80.039       66.374       57.838       44.361     4405.447     3345.242     1967.870        1.134        0.486       80.927       33.075        0.167      338.096       10.515      863.440
01/22/2014  12:54:00       36.107       34.628       57.108       41.857       93.746       50.507     1752.004     8788.341     2550.913        0.943        0.655       50.028       55.869        1.247      338.141       10.590      863.394
01/22/2014  12:55:00       65.837      -32.272       20.291       53.068       70.695       38.251     2816.163     4997.729     1463.132        0.753        0.464       73.321       39.202        0.286      337.964       10.293      863.380
01/22/2014  12:56:00        7.046      -11.596       42.480       55.503       67.487       34.778     3080.562     4554.445     1209.508        0.541        0.442       13.569       22.923        2.854      338.277       10.819      863.339
01/22/2014  12:57:00       60.005      -69.128        7.263       50.342       51.973       34.858     2534.326     2701.231     1215.105        0.744        0.323       91.539       27.096        0.088      338.161       10.625      863.323
01/22/2014  12:58:00       54.626       -6.697       27.927       61.013       39.231       41.525     3722.603     1539.102     1724.362        0.540        0.349       55.035       46.040        0.700      338.217       10.719      863.306
01/22/2014  12:59:00       32.180      -24.846       16.909       53.923       40.207       30.962     2907.700     1616.609      958.635        0.371        0.274       40.656       34.730        0.730      338.334       10.916      863.274
01/22/2014  13:00:00       88.925      -68.445        9.032       40.461       57.296       37.452     1637.123     3282.785     1402.662        0.950        0.316      112.216       26.935        0.058      337.907       10.196      863.257
01/22/2014  13:01:00       48.611      -30.830       12.594       43.635       41.520       28.764     1903.990     1723.944      827.350        0.396        0.223       57.563       15.699        0.074      338.025       10.397      863.241
01/22/2014  13:02:00       14.514        3.294       44.992       49.185       54.851       31.705     2419.145     3008.649     1005.194        0.434        0.322       14.883       25.147        2.855      338.542       11.264      863.220
01/22/2014  13:03:00       43.676        3.563       34.693       58.738       57.800       45.035     3450.158     3340.859     2028.194        0.597        0.441       43.821       38.731        0.781      338.054       10.444      863.227
01/22/2014  13:04:00       74.793       53.567       62.763       56.504       72.638       43.254     3192.647     5276.262     1870.936        1.137        0.517       91.997       46.177        0.252      338.025       10.397      863.221
01/22/2014  13:05:00       33.367      -82.849        1.063       27.359       52.176       29.359      748.508     2722.315      861.927        0.615        0.217       89.315       28.958        0.105      338.394       11.015      863.211
01/22/2014  13:06:00        1.841        5.048       57.741       23.974       46.097       32.363      574.746     2124.969     1047.381        0.355        0.187        5.373       29.705       30.564      338.874       11.822      863.183
01/22/2014  13:07:00       13.345      -37.509       47.462       49.779       94.816       57.104     2477.953     8990.061     3260.827        0.928        0.736       39.813       67.599        2.883      338.599       11.358      863.166
01/22/2014  13:08:00      108.333     -124.397      -29.577       53.797       73.017       38.912     2894.083     5331.495     1514.167        1.891        0.487      164.957       46.391        0.079      337.983       10.325      863.145
01/22/2014  13:09:00       91.770      -67.109      -12.007       78.889       77.735       50.710     6223.504     6042.718     2571.508        1.395        0.742      113.690       60.053        0.279      338.149       10.603      863.098
01/22/2014  13:10:00       72.988      -35.605       27.393       87.511       85.074       58.792     7658.180     7237.528     3456.517        1.285        0.918       81.209       60.708        0.559      338.246       10.766      863.078
01/22/2014  13:11:00      -35.300        9.837       25.345       29.108       25.620       23.776      847.247      656.363      565.281        0.203        0.103       36.645       18.505        0.255      338.685       11.505      863.057
01/22/2014  13:12:00      -17.442       23.935       57.914       37.251       54.112       35.501     1387.667     2928.117     1260.343        0.490        0.279       29.616       37.428        1.597      338.775       11.656      863.031
01/22/2014  13:13:00       58.451       -2.634       42.048       43.735       63.031       52.803     1912.774     3972.858     2788.137        0.693        0.434       58.510       55.201        0.890      338.311       10.877      863.013
01/22/2014  13:14:00       29.477       16.142       44.343       42.902       62.174       36.089     1840.564     3865.609     1302.408        0.505        0.350       33.608       38.141        1.288      338.559       11.293      862.995
01/22/2014  13:15:00       65.889      -40.594       22.700       63.878       91.818       48.869     4080.411     8430.559     2388.164        1.070        0.745       77.390       52.347        0.458      338.281       10.826      862.981
01/22/2014  13:16:00       18.189       30.008       39.166       59.360      106.498       74.236     3523.664    11341.835     5510.960        1.157        1.019       35.091       80.628        5.279      338.290       10.839      862.966
01/22/2014  13:17:00       21.179      -90.562       -7.865       59.237       48.021       40.445     3509.003     2305.974     1635.836        0.808        0.373       93.006       25.393        0.075      338.605       11.369      862.948
01/22/2014  13:18:00       68.526      -84.410      -10.218       70.498       69.210       43.608     4969.927     4789.971     1901.637        1.179        0.583      108.723       48.420        0.198      338.398       11.021      862.941
01/22/2014  13:19:00       11.123      -66.408        4.402       50.877       38.542       43.179     2588.463     1485.467     1864.463        0.524        0.297       67.333       35.183        0.273      338.379       10.991      862.944
01/22/2014  13:20:00        1.880        3.665       50.385       34.022       42.046       35.569     1157.517     1767.873     1265.176        0.337        0.210        4.119       26.616       41.757      338.664       11.470      862.948
01/22/2014  13:21:00       37.168       19.433       50.575       36.247       42.409       36.028     1313.855     1798.553     1298.043        0.436        0.221       41.941       32.022        0.583      338.344       10.932      862.960
01/22/2014  13:22:00       82.610      -59.505       20.205       55.191       65.944       53.881     3046.089     4348.605     2903.118        1.053        0.515      101.810       54.351        0.285      338.337       10.920      862.944
01/22/2014  13:23:00       46.835      -17.962       42.686       49.678       87.724       58.515     2467.946     7695.443     3424.030        0.896        0.679       50.161       64.113        1.634      338.478       11.157      862.938
01/22/2014  13:24:00       55.974      -10.481       39.505       34.788       38.437       26.427     1210.182     1477.415      698.393        0.409        0.169       56.947       25.173        0.195      338.340       10.924      862.926
01/22/2014  13:25:00        1.866      -17.197        1.902       32.211       21.523       16.333     1037.563      463.230      266.757        0.103        0.088       17.298        9.736        0.317      338.445       11.102      862.888
01/22/2014  13:26:00       31.015       -2.883       20.351       38.529       41.913       40.975     1484.505     1756.730     1678.967        0.315        0.246       31.149       41.176        1.747      338.570       11.311      862.856
01/22/2014  13:27:00       50.059       57.507       43.007       32.732       26.431       32.747     1071.387      698.586     1072.369        0.525        0.142       76.243       18.661        0.060      338.470       11.143      862.835
01/22/2014  13:28:00       62.947       48.626       43.198       30.003       37.722       25.614      900.152     1422.983      656.065        0.559        0.149       79.542       20.640        0.067      338.476       11.154      862.811
01/22/2014  13:29:00       85.319        7.332       38.640       25.612       69.759       38.080      655.983     4866.298     1450.078        0.790        0.349       85.633       27.543        0.103      338.342       10.928      862.786
01/22/2014  13:30:00       57.160       40.611       24.091       54.949       46.562       24.971     3019.439     2168.032      623.527        0.565        0.291       70.117       24.927        0.126      338.450       11.111      862.760
01/22/2014  13:31:00       20.874        5.860       11.007       26.260       28.851       26.110      689.580      832.386      681.730        0.140        0.110       21.681       19.247        0.788      338.676       11.490      862.733
01/22/2014  13:32:00        0.947       12.851        0.194       23.305       36.889       20.100      543.121     1360.792      404.027        0.124        0.115       12.886       16.957        1.732      338.764       11.637      862.714
01/22/2014  13:33:00       23.352       24.689      -10.775       23.463       30.268       11.960      550.531      916.156      143.047        0.144        0.080       33.983        7.062        0.043      338.800       11.698      862.686
01/22/2014  13:34:00      -12.217       51.796       -8.302       16.169       32.513       17.743      261.434     1057.077      314.812        0.227        0.082       53.217       19.682        0.137      338.650       11.446      862.650
01/22/2014  13:35:00       27.994        8.150        0.344       34.867       18.525       14.117     1215.675      343.190      199.281        0.130        0.088       29.156        6.565        0.051      338.791       11.683      862.639
01/22/2014  13:36:00      -74.590      -89.043       -4.782       52.206       49.640       29.504     2725.442     2464.139      870.474        0.979        0.303      116.156       36.597        0.099      338.465       11.136      862.630
01/22/2014  13:37:00      -41.377      -20.056        7.456       41.195       24.930       17.261     1697.060      621.506      297.938        0.239        0.131       45.981       15.655        0.116      338.671       11.481      862.618
01/22/2014  13:38:00        7.573      -46.310      -18.922       45.031       55.063       32.906     2027.777     3031.932     1082.805        0.435        0.307       46.925       26.282        0.314      338.726       11.573      862.605
01/22/2014  13:39:00       29.320      -12.247        9.261       32.757       40.496       35.333     1073.043     1639.903     1248.408        0.253        0.198       31.775       31.374        0.975      338.830       11.748      862.602
01/22/2014  13:40:00       -3.926       -6.020       20.192       28.951       45.418       18.468      838.153     2062.770      341.085        0.185        0.162        7.187       19.537        7.389      339.221       12.407      862.608
01/22/2014  13:41:00      -17.695      -36.828       14.660       28.245       50.924       22.393      797.787     2593.284      501.455        0.289        0.195       40.859       18.946        0.215      338.689       11.512      862.622
01/22/2014  13:42:00      -11.396      -17.085       24.416       22.548       31.750       16.972      508.398     1008.087      288.044        0.141        0.090       20.536        9.469        0.213      339.181       12.339      862.630
01/22/2014  13:43:00       46.077       96.609        6.183       75.213       48.311       41.711     5656.965     2333.971     1739.836        1.061        0.487      107.035       32.861        0.094      338.694       11.519      862.631
01/22/2014  13:44:00       83.555       53.359       16.178       53.602       36.397       34.706     2873.203     1324.772     1204.532        0.774        0.270       99.139       20.256        0.042      338.658       11.460      862.614
01/22/2014  13:44:00      159.000       75.000       -9.000          NaN          NaN          NaN          NaN          NaN          NaN        1.549          NaN      175.801        0.000        0.000      338.360       10.950      862.610
